Time,TemperatureF,DewpointF,PressureIn,WindDirection,WindDirectionDegrees,WindSpeedMPH,WindSpeedGustMPH,Humidity,HourlyPrecipIn,Conditions,Clouds,dailyrainin,SoftwareType,DateUTC
2013-02-08 00:01:00,73.9,70.7,29.86,SW,225,11.0,17.0,94,0.00,,,0.21,meteohub,2013-02-08 04:01:00,
2013-02-08 00:02:00,73.9,70.7,29.86,WNW,293,11.0,17.0,93,0.00,,,0.21,meteohub,2013-02-08 04:02:00,
2013-02-08 00:05:00,73.9,70.7,29.86,NW,315,15.0,17.0,93,0.00,,,0.21,meteohub,2013-02-08 04:05:00,
2013-02-08 00:08:00,73.9,70.7,29.86,SW,225,10.0,17.0,93,0.00,,,0.21,meteohub,2013-02-08 04:08:00,
2013-02-08 00:09:00,73.9,70.7,29.86,West,270,12.0,17.0,93,0.00,,,0.21,meteohub,2013-02-08 04:09:00,
2013-02-08 00:11:00,73.9,70.3,29.86,SW,225,9.0,16.0,93,0.00,,,0.21,meteohub,2013-02-08 04:11:00,
2013-02-08 00:12:00,73.9,70.9,29.86,WSW,248,11.0,16.0,93,0.00,,,0.21,meteohub,2013-02-08 04:12:00,
2013-02-08 00:14:00,73.9,70.5,29.86,West,270,8.0,16.0,93,0.00,,,0.21,meteohub,2013-02-08 04:14:00,
2013-02-08 00:15:00,73.9,70.3,29.86,West,270,9.0,16.0,93,0.00,,,0.21,meteohub,2013-02-08 04:15:00,
2013-02-08 00:17:00,73.9,70.5,29.86,SW,225,8.0,16.0,92,0.00,,,0.21,meteohub,2013-02-08 04:17:00,
2013-02-08 00:18:00,73.9,70.5,29.86,West,270,8.0,16.0,92,0.00,,,0.21,meteohub,2013-02-08 04:18:00,
2013-02-08 00:21:00,73.9,70.3,29.86,West,270,7.0,15.0,92,0.00,,,0.21,meteohub,2013-02-08 04:21:00,
2013-02-08 00:23:00,73.9,70.3,29.86,West,270,8.0,15.0,92,0.00,,,0.21,meteohub,2013-02-08 04:23:00,
2013-02-08 00:24:00,73.9,70.3,29.86,West,270,8.0,15.0,92,0.00,,,0.21,meteohub,2013-02-08 04:24:00,
2013-02-08 00:27:00,73.9,70.3,29.86,West,270,8.0,14.0,92,0.00,,,0.21,meteohub,2013-02-08 04:27:00,
2013-02-08 00:28:00,73.9,70.3,29.86,SW,225,7.0,14.0,92,0.00,,,0.21,meteohub,2013-02-08 04:28:00,
2013-02-08 00:30:00,73.9,70.3,29.86,SW,225,7.0,14.0,92,0.00,,,0.21,meteohub,2013-02-08 04:30:00,
2013-02-08 00:32:00,73.9,70.3,29.86,West,270,8.0,9.0,92,0.00,,,0.21,meteohub,2013-02-08 04:32:00,
2013-02-08 00:33:00,73.9,70.3,29.86,West,270,8.0,9.0,92,0.00,,,0.21,meteohub,2013-02-08 04:33:00,
2013-02-08 00:34:00,73.9,70.3,29.86,West,270,11.0,11.0,93,0.00,,,0.21,meteohub,2013-02-08 04:34:00,
2013-02-08 00:36:00,73.9,70.3,29.86,NW,315,15.0,15.0,93,0.00,,,0.21,meteohub,2013-02-08 04:36:00,
2013-02-08 00:38:00,74.1,70.3,29.86,West,270,11.0,11.0,93,0.00,,,0.21,meteohub,2013-02-08 04:38:00,
2013-02-08 00:40:00,74.1,70.3,29.86,NW,315,7.0,11.0,93,0.00,,,0.21,meteohub,2013-02-08 04:40:00,
2013-02-08 00:41:00,74.1,70.3,29.85,West,270,8.0,15.0,93,0.00,,,0.21,meteohub,2013-02-08 04:41:00,
2013-02-08 00:43:00,73.9,70.3,29.85,South,180,8.0,15.0,93,0.00,,,0.21,meteohub,2013-02-08 04:43:00,
2013-02-08 00:46:00,73.8,70.3,29.85,NW,315,15.0,15.0,93,0.00,,,0.21,meteohub,2013-02-08 04:46:00,
2013-02-08 00:47:00,73.8,70.3,29.85,SW,225,8.0,15.0,92,0.00,,,0.21,meteohub,2013-02-08 04:47:00,
2013-02-08 00:50:00,73.6,70.3,29.85,NW,315,6.0,15.0,92,0.00,,,0.21,meteohub,2013-02-08 04:50:00,
2013-02-08 00:52:00,73.6,70.3,29.84,NW,315,8.0,15.0,92,0.00,,,0.21,meteohub,2013-02-08 04:52:00,
2013-02-08 00:54:00,73.4,70.3,29.84,West,270,9.0,15.0,92,0.00,,,0.21,meteohub,2013-02-08 04:54:00,
2013-02-08 00:55:00,73.4,70.3,29.85,West,270,8.0,15.0,92,0.00,,,0.21,meteohub,2013-02-08 04:55:00,
2013-02-08 00:57:00,73.4,70.3,29.85,West,270,6.0,15.0,92,0.00,,,0.21,meteohub,2013-02-08 04:57:00,
2013-02-08 00:59:00,73.4,70.3,29.85,NW,315,5.0,15.0,92,0.00,,,0.21,meteohub,2013-02-08 04:59:00,
2013-02-08 01:00:00,73.4,70.3,29.84,West,270,6.0,15.0,92,0.00,,,0.21,meteohub,2013-02-08 05:00:00,
2013-02-08 01:01:00,73.4,70.3,29.85,West,270,5.0,15.0,92,0.00,,,0.21,meteohub,2013-02-08 05:01:00,
2013-02-08 01:03:00,73.4,70.5,29.84,West,270,5.0,15.0,92,0.00,,,0.21,meteohub,2013-02-08 05:03:00,
2013-02-08 01:04:00,73.4,70.5,29.84,West,270,5.0,15.0,92,0.00,,,0.21,meteohub,2013-02-08 05:04:00,
2013-02-08 01:06:00,73.4,70.5,29.84,NW,315,6.0,9.0,92,0.00,,,0.21,meteohub,2013-02-08 05:06:00,
2013-02-08 01:09:00,73.4,70.5,29.84,NW,315,7.0,9.0,92,0.00,,,0.21,meteohub,2013-02-08 05:09:00,
2013-02-08 01:11:00,73.4,70.5,29.84,West,270,7.0,8.0,93,0.00,,,0.21,meteohub,2013-02-08 05:11:00,
2013-02-08 01:12:00,73.4,70.5,29.84,NW,315,8.0,8.0,93,0.00,,,0.21,meteohub,2013-02-08 05:12:00,
2013-02-08 01:13:00,73.4,70.5,29.84,NW,315,7.0,8.0,93,0.00,,,0.21,meteohub,2013-02-08 05:13:00,
2013-02-08 01:15:00,73.6,70.5,29.84,West,270,5.0,8.0,92,0.00,,,0.21,meteohub,2013-02-08 05:15:00,
2013-02-08 01:17:00,73.6,70.5,29.84,NW,315,6.0,8.0,92,0.00,,,0.21,meteohub,2013-02-08 05:17:00,
2013-02-08 01:20:00,73.6,70.3,29.84,SW,225,4.0,8.0,92,0.00,,,0.21,meteohub,2013-02-08 05:20:00,
2013-02-08 01:22:00,73.6,70.3,29.83,NW,315,3.0,8.0,92,0.00,,,0.21,meteohub,2013-02-08 05:22:00,
2013-02-08 01:23:00,73.6,70.3,29.84,NW,315,4.0,8.0,92,0.00,,,0.21,meteohub,2013-02-08 05:23:00,
2013-02-08 01:26:00,73.6,70.3,29.83,West,270,5.0,8.0,92,0.00,,,0.21,meteohub,2013-02-08 05:26:00,
2013-02-08 01:27:00,73.6,70.3,29.83,WNW,293,5.0,8.0,92,0.00,,,0.21,meteohub,2013-02-08 05:27:00,
2013-02-08 01:30:00,73.6,70.3,29.83,West,270,5.0,6.0,92,0.00,,,0.21,meteohub,2013-02-08 05:30:00,
2013-02-08 01:32:00,73.6,70.3,29.83,NW,315,4.0,6.0,92,0.00,,,0.21,meteohub,2013-02-08 05:32:00,
2013-02-08 01:35:00,73.6,70.2,29.83,West,270,4.0,6.0,93,0.00,,,0.21,meteohub,2013-02-08 05:35:00,
2013-02-08 01:36:00,73.6,70.2,29.83,NW,315,4.0,6.0,93,0.00,,,0.21,meteohub,2013-02-08 05:36:00,
2013-02-08 01:38:00,73.4,70.2,29.83,East,90,4.0,6.0,93,0.00,,,0.21,meteohub,2013-02-08 05:38:00,
2013-02-08 01:39:00,73.4,70.2,29.83,WNW,293,6.0,6.0,93,0.00,,,0.21,meteohub,2013-02-08 05:39:00,
2013-02-08 01:41:00,73.4,70.2,29.83,WNW,293,7.0,8.0,93,0.00,,,0.21,meteohub,2013-02-08 05:41:00,
2013-02-08 01:44:00,73.4,70.2,29.83,WSW,248,6.0,8.0,93,0.00,,,0.21,meteohub,2013-02-08 05:44:00,
2013-02-08 01:45:00,73.4,70.2,29.83,NW,315,9.0,9.0,93,0.00,,,0.21,meteohub,2013-02-08 05:45:00,
2013-02-08 01:46:00,73.4,70.2,29.83,West,270,7.0,8.0,93,0.00,,,0.21,meteohub,2013-02-08 05:46:00,
2013-02-08 01:50:00,73.4,70.2,29.83,West,270,9.0,9.0,93,0.00,,,0.21,meteohub,2013-02-08 05:50:00,
2013-02-08 01:51:00,73.2,70.2,29.83,NW,315,7.0,9.0,92,0.00,,,0.21,meteohub,2013-02-08 05:51:00,
2013-02-08 01:52:00,73.2,70.2,29.83,NW,315,7.0,9.0,92,0.00,,,0.21,meteohub,2013-02-08 05:52:00,
2013-02-08 01:54:00,73.2,70.2,29.83,WSW,248,8.0,9.0,92,0.00,,,0.21,meteohub,2013-02-08 05:54:00,
2013-02-08 01:55:00,73.2,70.2,29.83,WSW,248,6.0,9.0,92,0.00,,,0.21,meteohub,2013-02-08 05:55:00,
2013-02-08 01:57:00,73.2,70.2,29.83,West,270,8.0,9.0,92,0.00,,,0.21,meteohub,2013-02-08 05:57:00,
2013-02-08 02:00:00,73.2,70.2,29.83,NW,315,8.0,9.0,92,0.00,,,0.21,meteohub,2013-02-08 06:00:00,
2013-02-08 02:02:00,73.4,70.2,29.83,WSW,248,8.0,9.0,93,0.00,,,0.21,meteohub,2013-02-08 06:02:00,
2013-02-08 02:05:00,73.4,70.2,29.83,West,270,5.0,8.0,93,0.00,,,0.21,meteohub,2013-02-08 06:05:00,
2013-02-08 02:07:00,73.4,70.2,29.82,West,270,5.0,8.0,93,0.00,,,0.21,meteohub,2013-02-08 06:07:00,
2013-02-08 02:08:00,73.4,70.2,29.82,West,270,5.0,8.0,93,0.00,,,0.21,meteohub,2013-02-08 06:08:00,
2013-02-08 02:10:00,73.4,70.2,29.82,South,180,4.0,8.0,93,0.00,,,0.21,meteohub,2013-02-08 06:10:00,
2013-02-08 02:13:00,73.2,70.2,29.82,SW,225,5.0,8.0,92,0.00,,,0.21,meteohub,2013-02-08 06:13:00,
2013-02-08 02:15:00,73.2,70.2,29.82,West,270,5.0,8.0,92,0.00,,,0.21,meteohub,2013-02-08 06:15:00,
2013-02-08 02:16:00,73.2,70.2,29.82,West,270,5.0,8.0,92,0.00,,,0.21,meteohub,2013-02-08 06:16:00,
2013-02-08 02:17:00,73.2,70.2,29.82,West,270,5.0,8.0,92,0.00,,,0.21,meteohub,2013-02-08 06:17:00,
2013-02-08 02:20:00,73.2,70.2,29.82,WNW,293,3.0,8.0,92,0.00,,,0.21,meteohub,2013-02-08 06:20:00,
2013-02-08 02:21:00,73.2,70.2,29.82,NW,315,4.0,7.0,92,0.00,,,0.21,meteohub,2013-02-08 06:21:00,
2013-02-08 02:22:00,73.2,70.2,29.82,West,270,3.0,7.0,92,0.00,,,0.21,meteohub,2013-02-08 06:22:00,
2013-02-08 02:23:00,73.2,70.2,29.82,WNW,293,4.0,7.0,92,0.00,,,0.21,meteohub,2013-02-08 06:23:00,
2013-02-08 02:27:00,73.2,70.2,29.82,NW,315,4.0,7.0,92,0.00,,,0.21,meteohub,2013-02-08 06:27:00,
2013-02-08 02:28:00,73.2,70.2,29.82,NW,315,4.0,7.0,92,0.00,,,0.21,meteohub,2013-02-08 06:28:00,
2013-02-08 02:30:00,73.2,70.2,29.81,NW,315,4.0,5.0,93,0.00,,,0.21,meteohub,2013-02-08 06:30:00,
2013-02-08 02:34:00,73.2,70.2,29.82,NW,315,5.0,5.0,93,0.00,,,0.21,meteohub,2013-02-08 06:34:00,
2013-02-08 02:35:00,73.2,70.2,29.81,NW,315,4.0,5.0,93,0.00,,,0.21,meteohub,2013-02-08 06:35:00,
2013-02-08 02:36:00,73.0,70.2,29.82,NW,315,4.0,5.0,93,0.00,,,0.21,meteohub,2013-02-08 06:36:00,
2013-02-08 02:39:00,73.0,70.2,29.81,NW,315,7.0,7.0,93,0.00,,,0.21,meteohub,2013-02-08 06:39:00,
2013-02-08 02:40:00,73.0,70.2,29.81,West,270,5.0,7.0,93,0.00,,,0.21,meteohub,2013-02-08 06:40:00,
2013-02-08 02:41:00,73.0,70.2,29.81,West,270,5.0,7.0,93,0.00,,,0.21,meteohub,2013-02-08 06:41:00,
2013-02-08 02:42:00,73.0,70.2,29.81,NNW,338,3.0,7.0,93,0.00,,,0.21,meteohub,2013-02-08 06:42:00,
2013-02-08 02:45:00,73.0,70.2,29.81,West,270,5.0,7.0,93,0.00,,,0.21,meteohub,2013-02-08 06:45:00,
2013-02-08 02:46:00,73.0,70.2,29.81,West,270,4.0,7.0,93,0.00,,,0.21,meteohub,2013-02-08 06:46:00,
2013-02-08 02:47:00,73.0,70.0,29.81,West,270,4.0,7.0,93,0.00,,,0.21,meteohub,2013-02-08 06:47:00,
2013-02-08 02:51:00,72.9,70.7,29.80,NW,315,4.0,7.0,93,0.00,,,0.21,meteohub,2013-02-08 06:51:00,
2013-02-08 02:52:00,72.9,70.5,29.81,NW,315,3.0,7.0,93,0.00,,,0.21,meteohub,2013-02-08 06:52:00,
2013-02-08 02:53:00,72.9,70.5,29.81,West,270,3.0,7.0,93,0.00,,,0.21,meteohub,2013-02-08 06:53:00,
2013-02-08 02:57:00,72.9,70.7,29.80,NW,315,2.0,5.0,93,0.00,,,0.21,meteohub,2013-02-08 06:57:00,
2013-02-08 02:58:00,72.9,70.7,29.80,NW,315,3.0,5.0,93,0.00,,,0.21,meteohub,2013-02-08 06:58:00,
2013-02-08 03:01:00,72.9,70.7,29.80,NW,315,4.0,5.0,93,0.00,,,0.21,meteohub,2013-02-08 07:01:00,
2013-02-08 03:02:00,72.9,70.5,29.80,NW,315,4.0,5.0,93,0.00,,,0.21,meteohub,2013-02-08 07:02:00,
2013-02-08 03:04:00,72.9,70.0,29.80,NW,315,4.0,5.0,93,0.00,,,0.21,meteohub,2013-02-08 07:04:00,
2013-02-08 03:06:00,72.7,70.0,29.80,NW,315,3.0,4.0,93,0.00,,,0.21,meteohub,2013-02-08 07:06:00,
2013-02-08 03:07:00,72.7,70.0,29.80,NW,315,4.0,4.0,93,0.00,,,0.21,meteohub,2013-02-08 07:07:00,
2013-02-08 03:08:00,72.7,70.0,29.80,NW,315,3.0,4.0,93,0.00,,,0.21,meteohub,2013-02-08 07:08:00,
2013-02-08 03:11:00,72.7,70.5,29.80,NW,315,4.0,4.0,93,0.00,,,0.21,meteohub,2013-02-08 07:11:00,
2013-02-08 03:12:00,72.7,70.3,29.79,NW,315,4.0,4.0,93,0.00,,,0.21,meteohub,2013-02-08 07:12:00,
2013-02-08 03:13:00,72.7,70.3,29.80,NW,315,4.0,4.0,93,0.00,,,0.21,meteohub,2013-02-08 07:13:00,
2013-02-08 03:17:00,72.7,70.3,29.79,NW,315,4.0,4.0,93,0.00,,,0.21,meteohub,2013-02-08 07:17:00,
2013-02-08 03:18:00,72.7,70.3,29.79,NW,315,4.0,4.0,93,0.00,,,0.21,meteohub,2013-02-08 07:18:00,
2013-02-08 03:19:00,72.5,70.3,29.79,NW,315,5.0,5.0,93,0.00,,,0.21,meteohub,2013-02-08 07:19:00,
2013-02-08 03:22:00,72.5,70.3,29.79,North,0,4.0,5.0,93,0.00,,,0.21,meteohub,2013-02-08 07:22:00,
2013-02-08 03:23:00,72.5,70.3,29.79,NW,315,4.0,5.0,93,0.00,,,0.21,meteohub,2013-02-08 07:23:00,
2013-02-08 03:24:00,72.3,70.2,29.79,NW,315,4.0,5.0,93,0.00,,,0.21,meteohub,2013-02-08 07:24:00,
2013-02-08 03:27:00,72.3,70.2,29.80,NW,315,4.0,6.0,93,0.00,,,0.21,meteohub,2013-02-08 07:27:00,
2013-02-08 03:28:00,72.3,70.2,29.79,NW,315,4.0,6.0,93,0.00,,,0.21,meteohub,2013-02-08 07:28:00,
2013-02-08 03:30:00,72.1,70.2,29.79,NW,315,4.0,6.0,93,0.00,,,0.21,meteohub,2013-02-08 07:30:00,
2013-02-08 03:33:00,72.1,70.2,29.79,North,0,4.0,6.0,93,0.00,,,0.21,meteohub,2013-02-08 07:33:00,
2013-02-08 03:34:00,72.1,70.2,29.79,NW,315,4.0,6.0,93,0.00,,,0.21,meteohub,2013-02-08 07:34:00,
2013-02-08 03:35:00,72.1,70.2,29.79,NW,315,4.0,6.0,93,0.00,,,0.21,meteohub,2013-02-08 07:35:00,
2013-02-08 03:37:00,72.0,70.0,29.79,NW,315,4.0,6.0,93,0.00,,,0.21,meteohub,2013-02-08 07:37:00,
2013-02-08 03:38:00,72.0,70.0,29.79,West,270,4.0,6.0,93,0.00,,,0.21,meteohub,2013-02-08 07:38:00,
2013-02-08 03:40:00,72.0,70.0,29.79,NW,315,4.0,6.0,93,0.00,,,0.21,meteohub,2013-02-08 07:40:00,
2013-02-08 03:42:00,71.8,70.0,29.79,NW,315,4.0,4.0,93,0.00,,,0.21,meteohub,2013-02-08 07:42:00,
2013-02-08 03:43:00,71.8,70.0,29.79,WNW,293,4.0,4.0,93,0.00,,,0.21,meteohub,2013-02-08 07:43:00,
2013-02-08 03:45:00,71.8,70.0,29.79,WNW,293,4.0,4.0,93,0.00,,,0.21,meteohub,2013-02-08 07:45:00,
2013-02-08 03:47:00,71.8,70.0,29.79,NW,315,4.0,4.0,93,0.00,,,0.21,meteohub,2013-02-08 07:47:00,
2013-02-08 03:50:00,71.8,70.0,29.79,NW,315,3.0,4.0,93,0.00,,,0.21,meteohub,2013-02-08 07:50:00,
2013-02-08 03:51:00,71.8,70.0,29.79,North,0,4.0,5.0,93,0.00,,,0.21,meteohub,2013-02-08 07:51:00,
2013-02-08 03:52:00,71.8,70.0,29.79,NW,315,4.0,5.0,93,0.00,,,0.21,meteohub,2013-02-08 07:52:00,
2013-02-08 03:55:00,71.8,69.8,29.79,NW,315,4.0,5.0,93,0.00,,,0.21,meteohub,2013-02-08 07:55:00,
2013-02-08 03:56:00,71.8,70.0,29.79,NW,315,5.0,5.0,93,0.00,,,0.21,meteohub,2013-02-08 07:56:00,
2013-02-08 03:58:00,71.8,70.0,29.79,NW,315,6.0,6.0,93,0.00,,,0.21,meteohub,2013-02-08 07:58:00,
2013-02-08 03:59:00,71.8,70.0,29.79,North,0,4.0,5.0,93,0.00,,,0.21,meteohub,2013-02-08 07:59:00,
2013-02-08 04:02:00,71.8,69.8,29.79,NW,315,4.0,6.0,93,0.00,,,0.21,meteohub,2013-02-08 08:02:00,
2013-02-08 04:03:00,71.8,69.8,29.79,NW,315,7.0,7.0,93,0.00,,,0.21,meteohub,2013-02-08 08:03:00,
2013-02-08 04:04:00,71.8,69.8,29.79,NW,315,6.0,6.0,93,0.00,,,0.21,meteohub,2013-02-08 08:04:00,
2013-02-08 04:06:00,71.8,69.8,29.79,NW,315,6.0,7.0,92,0.00,,,0.21,meteohub,2013-02-08 08:06:00,
2013-02-08 04:07:00,71.8,69.8,29.79,NW,315,5.0,7.0,92,0.00,,,0.21,meteohub,2013-02-08 08:07:00,
2013-02-08 04:09:00,71.8,69.8,29.79,NW,315,7.0,7.0,92,0.00,,,0.21,meteohub,2013-02-08 08:09:00,
2013-02-08 04:10:00,71.8,69.8,29.79,NW,315,6.0,8.0,92,0.00,,,0.21,meteohub,2013-02-08 08:10:00,
2013-02-08 04:12:00,72.0,69.8,29.79,NW,315,7.0,8.0,92,0.00,,,0.21,meteohub,2013-02-08 08:12:00,
2013-02-08 04:13:00,72.0,69.8,29.79,West,270,5.0,8.0,92,0.00,,,0.21,meteohub,2013-02-08 08:13:00,
2013-02-08 04:15:00,72.0,69.8,29.79,West,270,7.0,8.0,92,0.00,,,0.21,meteohub,2013-02-08 08:15:00,
2013-02-08 04:17:00,72.1,69.8,29.79,NW,315,8.0,8.0,92,0.00,,,0.21,meteohub,2013-02-08 08:17:00,
2013-02-08 04:18:00,72.1,69.8,29.79,West,270,8.0,8.0,92,0.00,,,0.21,meteohub,2013-02-08 08:18:00,
2013-02-08 04:19:00,72.1,69.8,29.79,WNW,293,9.0,9.0,92,0.00,,,0.21,meteohub,2013-02-08 08:19:00,
2013-02-08 04:21:00,72.1,69.8,29.79,NW,315,8.0,9.0,92,0.00,,,0.21,meteohub,2013-02-08 08:21:00,
2013-02-08 04:24:00,72.3,69.8,29.79,West,270,6.0,9.0,91,0.00,,,0.21,meteohub,2013-02-08 08:24:00,
2013-02-08 04:25:00,72.3,70.0,29.79,NW,315,7.0,10.0,91,0.00,,,0.21,meteohub,2013-02-08 08:25:00,
2013-02-08 04:28:00,72.3,69.4,29.79,NW,315,8.0,10.0,91,0.00,,,0.21,meteohub,2013-02-08 08:28:00,
2013-02-08 04:30:00,72.3,69.4,29.79,NW,315,7.0,10.0,91,0.00,,,0.21,meteohub,2013-02-08 08:30:00,
2013-02-08 04:31:00,72.3,69.4,29.79,NW,315,7.0,10.0,91,0.00,,,0.21,meteohub,2013-02-08 08:31:00,
2013-02-08 04:33:00,72.3,69.4,29.79,NW,315,6.0,10.0,91,0.00,,,0.21,meteohub,2013-02-08 08:33:00,
2013-02-08 04:36:00,72.3,69.4,29.79,NW,315,9.0,10.0,91,0.00,,,0.21,meteohub,2013-02-08 08:36:00,
2013-02-08 04:37:00,72.3,69.4,29.79,WNW,293,8.0,10.0,91,0.00,,,0.21,meteohub,2013-02-08 08:37:00,
2013-02-08 04:40:00,72.3,69.4,29.79,West,270,6.0,10.0,91,0.00,,,0.21,meteohub,2013-02-08 08:40:00,
2013-02-08 04:41:00,72.5,69.4,29.79,West,270,7.0,9.0,91,0.00,,,0.21,meteohub,2013-02-08 08:41:00,
2013-02-08 04:42:00,72.5,69.4,29.79,NW,315,8.0,9.0,91,0.00,,,0.21,meteohub,2013-02-08 08:42:00,
2013-02-08 04:44:00,72.5,69.4,29.80,NW,315,8.0,9.0,91,0.00,,,0.21,meteohub,2013-02-08 08:44:00,
2013-02-08 04:45:00,72.5,69.4,29.79,NW,315,8.0,9.0,91,0.00,,,0.21,meteohub,2013-02-08 08:45:00,
2013-02-08 04:46:00,72.5,69.4,29.79,West,270,8.0,9.0,91,0.00,,,0.21,meteohub,2013-02-08 08:46:00,
2013-02-08 04:48:00,72.5,69.4,29.79,West,270,6.0,9.0,90,0.00,,,0.21,meteohub,2013-02-08 08:48:00,
2013-02-08 04:50:00,72.5,69.4,29.79,West,270,7.0,9.0,91,0.00,,,0.21,meteohub,2013-02-08 08:50:00,
2013-02-08 04:51:00,72.5,69.4,29.79,NW,315,9.0,9.0,91,0.00,,,0.21,meteohub,2013-02-08 08:51:00,
2013-02-08 04:52:00,72.3,69.4,29.79,WNW,293,6.0,9.0,91,0.00,,,0.21,meteohub,2013-02-08 08:52:00,
2013-02-08 04:53:00,72.3,69.4,29.79,NW,315,9.0,9.0,91,0.00,,,0.21,meteohub,2013-02-08 08:53:00,
2013-02-08 04:57:00,72.3,69.4,29.79,WNW,293,8.0,9.0,91,0.00,,,0.21,meteohub,2013-02-08 08:57:00,
2013-02-08 04:58:00,72.3,69.4,29.79,NW,315,7.0,9.0,91,0.00,,,0.21,meteohub,2013-02-08 08:58:00,
2013-02-08 05:02:00,72.3,69.4,29.79,NW,315,7.0,9.0,91,0.00,,,0.21,meteohub,2013-02-08 09:02:00,
2013-02-08 05:03:00,72.3,69.4,29.79,NW,315,8.0,9.0,91,0.00,,,0.21,meteohub,2013-02-08 09:03:00,
2013-02-08 05:04:00,72.1,69.4,29.79,NW,315,6.0,9.0,91,0.00,,,0.21,meteohub,2013-02-08 09:04:00,
2013-02-08 05:05:00,72.1,69.4,29.79,NW,315,6.0,9.0,91,0.00,,,0.21,meteohub,2013-02-08 09:05:00,
2013-02-08 05:08:00,72.1,69.4,29.79,NW,315,6.0,9.0,91,0.00,,,0.21,meteohub,2013-02-08 09:08:00,
2013-02-08 05:10:00,72.1,69.4,29.80,NW,315,8.0,9.0,91,0.00,,,0.21,meteohub,2013-02-08 09:10:00,
2013-02-08 05:11:00,72.1,69.4,29.80,NW,315,6.0,8.0,91,0.00,,,0.21,meteohub,2013-02-08 09:11:00,
2013-02-08 05:15:00,72.1,69.4,29.79,WNW,293,5.0,8.0,91,0.00,,,0.21,meteohub,2013-02-08 09:15:00,
2013-02-08 05:16:00,72.1,69.4,29.80,NW,315,4.0,8.0,91,0.00,,,0.21,meteohub,2013-02-08 09:16:00,
2013-02-08 05:19:00,72.0,69.3,29.79,North,0,5.0,8.0,91,0.00,,,0.21,meteohub,2013-02-08 09:19:00,
2013-02-08 05:21:00,72.0,69.3,29.79,WNW,293,7.0,8.0,91,0.00,,,0.21,meteohub,2013-02-08 09:21:00,
2013-02-08 05:24:00,72.0,69.3,29.80,West,270,8.0,8.0,91,0.00,,,0.21,meteohub,2013-02-08 09:24:00,
2013-02-08 05:25:00,72.0,69.3,29.80,NW,315,7.0,8.0,91,0.00,,,0.21,meteohub,2013-02-08 09:25:00,
2013-02-08 05:27:00,72.0,69.3,29.80,West,270,8.0,8.0,91,0.00,,,0.21,meteohub,2013-02-08 09:27:00,
2013-02-08 05:30:00,72.0,69.3,29.80,SW,225,6.0,8.0,91,0.00,,,0.21,meteohub,2013-02-08 09:30:00,
2013-02-08 05:31:00,72.0,69.3,29.80,NW,315,6.0,8.0,91,0.00,,,0.21,meteohub,2013-02-08 09:31:00,
2013-02-08 05:34:00,72.0,69.3,29.80,WNW,293,9.0,9.0,91,0.00,,,0.21,meteohub,2013-02-08 09:34:00,
2013-02-08 05:36:00,72.1,69.3,29.80,West,270,9.0,12.0,91,0.00,,,0.21,meteohub,2013-02-08 09:36:00,
2013-02-08 05:37:00,72.1,69.3,29.80,West,270,12.0,12.0,91,0.00,,,0.21,meteohub,2013-02-08 09:37:00,
2013-02-08 05:38:00,72.3,69.3,29.80,West,270,8.0,12.0,91,0.00,,,0.21,meteohub,2013-02-08 09:38:00,
2013-02-08 05:42:00,72.3,69.3,29.80,West,270,8.0,12.0,90,0.00,,,0.21,meteohub,2013-02-08 09:42:00,
2013-02-08 05:43:00,72.3,69.3,29.80,SW,225,5.0,12.0,90,0.00,,,0.21,meteohub,2013-02-08 09:43:00,
2013-02-08 05:44:00,72.3,69.3,29.80,WNW,293,7.0,12.0,90,0.00,,,0.21,meteohub,2013-02-08 09:44:00,
2013-02-08 05:45:00,72.3,69.3,29.80,West,270,7.0,12.0,90,0.00,,,0.21,meteohub,2013-02-08 09:45:00,
2013-02-08 05:47:00,72.3,69.3,29.80,West,270,8.0,12.0,90,0.00,,,0.21,meteohub,2013-02-08 09:47:00,
2013-02-08 05:49:00,72.1,69.3,29.81,WSW,248,6.0,12.0,90,0.00,,,0.21,meteohub,2013-02-08 09:49:00,
2013-02-08 05:50:00,72.1,69.3,29.81,NW,315,8.0,12.0,90,0.00,,,0.21,meteohub,2013-02-08 09:50:00,
2013-02-08 05:52:00,72.1,69.3,29.81,West,270,5.0,12.0,90,0.00,,,0.21,meteohub,2013-02-08 09:52:00,
2013-02-08 05:55:00,72.1,69.3,29.81,West,270,4.0,8.0,90,0.00,,,0.21,meteohub,2013-02-08 09:55:00,
2013-02-08 05:56:00,72.1,69.3,29.81,West,270,7.0,8.0,90,0.00,,,0.21,meteohub,2013-02-08 09:56:00,
2013-02-08 05:58:00,72.1,69.3,29.81,West,270,8.0,8.0,90,0.00,,,0.21,meteohub,2013-02-08 09:58:00,
2013-02-08 06:01:00,72.1,69.3,29.81,NW,315,9.0,9.0,90,0.00,,,0.21,meteohub,2013-02-08 10:01:00,
2013-02-08 06:04:00,72.1,69.3,29.81,WNW,293,6.0,8.0,90,0.00,,,0.21,meteohub,2013-02-08 10:04:00,
2013-02-08 06:07:00,72.1,69.3,29.81,NW,315,7.0,10.0,90,0.00,,,0.21,meteohub,2013-02-08 10:07:00,
2013-02-08 06:10:00,72.1,69.3,29.81,West,270,6.0,10.0,90,0.00,,,0.21,meteohub,2013-02-08 10:10:00,
2013-02-08 06:12:00,72.1,69.3,29.81,West,270,7.0,10.0,89,0.00,,,0.21,meteohub,2013-02-08 10:12:00,
2013-02-08 06:13:00,72.1,69.3,29.81,NW,315,5.0,10.0,89,0.00,,,0.21,meteohub,2013-02-08 10:13:00,
2013-02-08 06:16:00,72.1,69.3,29.81,NW,315,6.0,9.0,89,0.00,,,0.21,meteohub,2013-02-08 10:16:00,
2013-02-08 06:17:00,72.1,69.3,29.81,NW,315,6.0,9.0,89,0.00,,,0.21,meteohub,2013-02-08 10:17:00,
2013-02-08 06:18:00,72.1,69.3,29.82,West,270,7.0,9.0,89,0.00,,,0.21,meteohub,2013-02-08 10:18:00,
2013-02-08 06:19:00,72.1,69.3,29.81,NW,315,8.0,9.0,89,0.00,,,0.21,meteohub,2013-02-08 10:19:00,
2013-02-08 06:22:00,72.1,69.3,29.82,WNW,293,7.0,10.0,89,0.00,,,0.21,meteohub,2013-02-08 10:22:00,
2013-02-08 06:24:00,72.0,69.3,29.82,NW,315,9.0,10.0,89,0.00,,,0.21,meteohub,2013-02-08 10:24:00,
2013-02-08 06:25:00,72.0,69.3,29.82,NW,315,9.0,10.0,89,0.00,,,0.21,meteohub,2013-02-08 10:25:00,
2013-02-08 06:26:00,72.0,69.3,29.82,West,270,9.0,10.0,90,0.00,,,0.21,meteohub,2013-02-08 10:26:00,
2013-02-08 06:27:00,72.1,69.3,29.82,NW,315,9.0,10.0,90,0.00,,,0.21,meteohub,2013-02-08 10:27:00,
2013-02-08 06:31:00,72.1,68.9,29.81,NW,315,10.0,10.0,90,0.00,,,0.21,meteohub,2013-02-08 10:31:00,
2013-02-08 06:32:00,72.1,68.7,29.82,West,270,10.0,10.0,90,0.00,,,0.21,meteohub,2013-02-08 10:32:00,
2013-02-08 06:34:00,72.1,68.7,29.82,NW,315,8.0,9.0,90,0.00,,,0.21,meteohub,2013-02-08 10:34:00,
2013-02-08 06:37:00,72.1,68.7,29.82,NW,315,6.0,10.0,90,0.00,,,0.21,meteohub,2013-02-08 10:37:00,
2013-02-08 06:39:00,72.0,68.7,29.82,NW,315,5.0,10.0,90,0.00,,,0.21,meteohub,2013-02-08 10:39:00,
2013-02-08 06:40:00,72.0,68.5,29.82,NW,315,8.0,10.0,90,0.00,,,0.21,meteohub,2013-02-08 10:40:00,
2013-02-08 06:42:00,72.0,68.5,29.82,NW,315,7.0,10.0,90,0.00,,,0.21,meteohub,2013-02-08 10:42:00,
2013-02-08 06:43:00,72.0,68.5,29.82,West,270,5.0,10.0,90,0.00,,,0.21,meteohub,2013-02-08 10:43:00,
2013-02-08 06:45:00,72.0,68.5,29.82,NW,315,7.0,10.0,90,0.00,,,0.21,meteohub,2013-02-08 10:45:00,
2013-02-08 06:46:00,72.0,68.5,29.82,NW,315,7.0,10.0,90,0.00,,,0.21,meteohub,2013-02-08 10:46:00,
2013-02-08 06:48:00,72.0,68.5,29.83,NW,315,6.0,10.0,90,0.00,,,0.21,meteohub,2013-02-08 10:48:00,
2013-02-08 06:52:00,72.1,68.9,29.83,NW,315,5.0,8.0,90,0.00,,,0.21,meteohub,2013-02-08 10:52:00,
2013-02-08 06:53:00,72.1,68.9,29.82,NW,315,5.0,8.0,90,0.00,,,0.21,meteohub,2013-02-08 10:53:00,
2013-02-08 06:54:00,72.1,68.9,29.83,NW,315,8.0,8.0,90,0.00,,,0.21,meteohub,2013-02-08 10:54:00,
2013-02-08 06:55:00,72.1,68.9,29.83,NW,315,7.0,8.0,90,0.00,,,0.21,meteohub,2013-02-08 10:55:00,
2013-02-08 06:59:00,72.1,68.9,29.83,NW,315,8.0,8.0,89,0.00,,,0.21,meteohub,2013-02-08 10:59:00,
2013-02-08 07:00:00,72.3,68.9,29.83,NW,315,9.0,9.0,89,0.00,,,0.21,meteohub,2013-02-08 11:00:00,
2013-02-08 07:01:00,72.3,68.9,29.83,NW,315,10.0,10.0,89,0.00,,,0.21,meteohub,2013-02-08 11:01:00,
2013-02-08 07:02:00,72.3,68.9,29.83,NW,315,9.0,9.0,89,0.00,,,0.21,meteohub,2013-02-08 11:02:00,
2013-02-08 07:05:00,72.3,68.9,29.83,North,0,6.0,8.0,89,0.00,,,0.21,meteohub,2013-02-08 11:05:00,
2013-02-08 07:06:00,72.5,68.9,29.83,NW,315,7.0,10.0,89,0.00,,,0.21,meteohub,2013-02-08 11:06:00,
2013-02-08 07:08:00,72.5,68.9,29.83,North,0,5.0,10.0,88,0.00,,,0.21,meteohub,2013-02-08 11:08:00,
2013-02-08 07:11:00,72.5,68.7,29.83,NW,315,5.0,10.0,88,0.00,,,0.21,meteohub,2013-02-08 11:11:00,
2013-02-08 07:12:00,72.5,68.7,29.83,NW,315,7.0,10.0,88,0.00,,,0.21,meteohub,2013-02-08 11:12:00,
2013-02-08 07:14:00,72.5,68.7,29.83,North,0,5.0,10.0,88,0.00,,,0.21,meteohub,2013-02-08 11:14:00,
2013-02-08 07:17:00,72.5,68.7,29.83,NW,315,7.0,10.0,88,0.00,,,0.21,meteohub,2013-02-08 11:17:00,
2013-02-08 07:18:00,72.5,68.7,29.83,NW,315,7.0,10.0,88,0.00,,,0.21,meteohub,2013-02-08 11:18:00,
2013-02-08 07:22:00,72.9,68.5,29.83,NW,315,4.0,8.0,88,0.00,,,0.21,meteohub,2013-02-08 11:22:00,
2013-02-08 07:23:00,73.0,68.5,29.83,NW,315,4.0,8.0,88,0.00,,,0.21,meteohub,2013-02-08 11:23:00,
2013-02-08 07:25:00,73.4,68.5,29.83,NW,315,4.0,8.0,88,0.00,,,0.21,meteohub,2013-02-08 11:25:00,
2013-02-08 07:26:00,73.4,68.5,29.83,NNW,338,6.0,8.0,88,0.00,,,0.21,meteohub,2013-02-08 11:26:00,
2013-02-08 07:29:00,74.1,68.9,29.83,NW,315,5.0,8.0,86,0.00,,,0.21,meteohub,2013-02-08 11:29:00,
2013-02-08 07:31:00,74.5,68.9,29.83,NW,315,5.0,8.0,86,0.00,,,0.21,meteohub,2013-02-08 11:31:00,
2013-02-08 07:34:00,75.0,68.7,29.83,North,0,5.0,8.0,84,0.00,,,0.21,meteohub,2013-02-08 11:34:00,
2013-02-08 07:35:00,75.4,68.9,29.84,North,0,4.0,8.0,83,0.00,,,0.21,meteohub,2013-02-08 11:35:00,
2013-02-08 07:37:00,75.9,68.9,29.83,North,0,4.0,6.0,81,0.00,,,0.21,meteohub,2013-02-08 11:37:00,
2013-02-08 07:41:00,76.3,68.9,29.83,North,0,6.0,6.0,79,0.00,,,0.21,meteohub,2013-02-08 11:41:00,
2013-02-08 07:42:00,76.5,68.9,29.84,North,0,6.0,6.0,79,0.00,,,0.21,meteohub,2013-02-08 11:42:00,
2013-02-08 07:45:00,77.2,68.9,29.84,NW,315,4.0,6.0,77,0.00,,,0.21,meteohub,2013-02-08 11:45:00,
2013-02-08 07:46:00,77.4,68.9,29.84,NW,315,3.0,6.0,76,0.00,,,0.21,meteohub,2013-02-08 11:46:00,
2013-02-08 07:47:00,77.7,68.9,29.84,NW,315,5.0,6.0,76,0.00,,,0.21,meteohub,2013-02-08 11:47:00,
2013-02-08 07:48:00,77.7,68.9,29.84,NW,315,5.0,6.0,76,0.00,,,0.21,meteohub,2013-02-08 11:48:00,
2013-02-08 07:53:00,76.6,69.1,29.84,WNW,293,4.0,6.0,77,0.00,,,0.21,meteohub,2013-02-08 11:53:00,
2013-02-08 07:54:00,76.6,69.1,29.84,NW,315,5.0,6.0,77,0.00,,,0.21,meteohub,2013-02-08 11:54:00,
2013-02-08 07:55:00,76.5,69.1,29.84,North,0,4.0,6.0,77,0.00,,,0.21,meteohub,2013-02-08 11:55:00,
2013-02-08 08:00:00,76.3,69.1,29.84,NW,315,5.0,6.0,78,0.00,,,0.21,meteohub,2013-02-08 12:00:00,
2013-02-08 08:01:00,76.3,69.1,29.84,NW,315,5.0,5.0,78,0.00,,,0.21,meteohub,2013-02-08 12:01:00,
2013-02-08 08:02:00,76.3,68.7,29.84,NW,315,5.0,5.0,78,0.00,,,0.21,meteohub,2013-02-08 12:02:00,
2013-02-08 08:05:00,78.1,68.7,29.84,WNW,293,3.0,5.0,76,0.00,,,0.21,meteohub,2013-02-08 12:05:00,
2013-02-08 08:06:00,78.3,68.7,29.85,NW,315,4.0,5.0,76,0.00,,,0.21,meteohub,2013-02-08 12:06:00,
2013-02-08 08:07:00,78.6,68.7,29.84,NW,315,7.0,7.0,76,0.00,,,0.21,meteohub,2013-02-08 12:07:00,
2013-02-08 08:08:00,78.8,68.9,29.85,NW,315,5.0,5.0,74,0.00,,,0.21,meteohub,2013-02-08 12:08:00,
2013-02-08 08:12:00,79.5,68.9,29.84,NW,315,5.0,7.0,72,0.00,,,0.21,meteohub,2013-02-08 12:12:00,
2013-02-08 08:13:00,79.2,68.9,29.85,NW,315,5.0,7.0,71,0.00,,,0.21,meteohub,2013-02-08 12:13:00,
2013-02-08 08:14:00,79.2,68.9,29.85,West,270,4.0,7.0,72,0.00,,,0.21,meteohub,2013-02-08 12:14:00,
2013-02-08 08:15:00,78.8,68.9,29.85,West,270,6.0,10.0,72,0.00,,,0.21,meteohub,2013-02-08 12:15:00,
2013-02-08 08:18:00,78.3,68.9,29.85,West,270,5.0,10.0,73,0.00,,,0.21,meteohub,2013-02-08 12:18:00,
2013-02-08 08:19:00,78.1,68.9,29.85,NW,315,7.0,10.0,73,0.00,,,0.21,meteohub,2013-02-08 12:19:00,
2013-02-08 08:20:00,78.1,68.9,29.85,NW,315,7.0,10.0,73,0.00,,,0.21,meteohub,2013-02-08 12:20:00,
2013-02-08 08:23:00,77.9,68.5,29.85,NW,315,8.0,10.0,74,0.00,,,0.21,meteohub,2013-02-08 12:23:00,
2013-02-08 08:26:00,77.9,68.9,29.85,NW,315,10.0,10.0,74,0.00,,,0.21,meteohub,2013-02-08 12:26:00,
2013-02-08 08:27:00,77.9,68.5,29.85,WNW,293,10.0,10.0,74,0.00,,,0.21,meteohub,2013-02-08 12:27:00,
2013-02-08 08:29:00,77.5,68.5,29.85,West,270,7.0,10.0,74,0.00,,,0.21,meteohub,2013-02-08 12:29:00,
2013-02-08 08:31:00,77.4,68.2,29.86,WNW,293,9.0,10.0,74,0.01,,,0.22,meteohub,2013-02-08 12:31:00,
2013-02-08 08:34:00,77.4,68.2,29.85,SW,225,11.0,11.0,74,0.01,,,0.22,meteohub,2013-02-08 12:34:00,
2013-02-08 08:35:00,77.4,68.2,29.86,SW,225,11.0,11.0,75,0.01,,,0.22,meteohub,2013-02-08 12:35:00,
2013-02-08 08:36:00,77.4,68.2,29.86,NW,315,8.0,16.0,75,0.01,,,0.22,meteohub,2013-02-08 12:36:00,
2013-02-08 08:39:00,77.9,68.2,29.86,West,270,9.0,16.0,74,0.01,,,0.22,meteohub,2013-02-08 12:39:00,
2013-02-08 08:40:00,77.9,68.2,29.85,South,180,7.0,16.0,74,0.01,,,0.22,meteohub,2013-02-08 12:40:00,
2013-02-08 08:41:00,78.1,68.2,29.86,WNW,293,6.0,16.0,75,0.01,,,0.22,meteohub,2013-02-08 12:41:00,
2013-02-08 08:42:00,78.3,68.2,29.86,NW,315,8.0,16.0,75,0.01,,,0.22,meteohub,2013-02-08 12:42:00,
2013-02-08 08:44:00,79.3,68.2,29.86,West,270,10.0,16.0,73,0.01,,,0.22,meteohub,2013-02-08 12:44:00,
2013-02-08 08:46:00,80.1,68.2,29.86,SSW,203,6.0,16.0,72,0.01,,,0.22,meteohub,2013-02-08 12:46:00,
2013-02-08 08:47:00,80.8,68.2,29.86,NW,315,14.0,16.0,71,0.01,,,0.22,meteohub,2013-02-08 12:47:00,
2013-02-08 08:49:00,80.8,68.2,29.86,NW,315,11.0,16.0,67,0.01,,,0.22,meteohub,2013-02-08 12:49:00,
2013-02-08 08:51:00,80.6,68.2,29.86,NW,315,9.0,14.0,68,0.01,,,0.22,meteohub,2013-02-08 12:51:00,
2013-02-08 08:53:00,80.2,68.2,29.86,WNW,293,11.0,14.0,70,0.01,,,0.22,meteohub,2013-02-08 12:53:00,
2013-02-08 08:56:00,79.7,68.4,29.86,NW,315,10.0,15.0,70,0.01,,,0.22,meteohub,2013-02-08 12:56:00,
2013-02-08 08:57:00,79.5,68.4,29.86,NW,315,12.0,15.0,71,0.01,,,0.22,meteohub,2013-02-08 12:57:00,
2013-02-08 08:58:00,79.5,68.4,29.86,WNW,293,14.0,15.0,71,0.01,,,0.22,meteohub,2013-02-08 12:58:00,
2013-02-08 09:01:00,79.7,68.4,29.86,SW,225,8.0,15.0,71,0.01,,,0.22,meteohub,2013-02-08 13:01:00,
2013-02-08 09:02:00,79.5,68.4,29.86,NW,315,10.0,15.0,72,0.01,,,0.22,meteohub,2013-02-08 13:02:00,
2013-02-08 09:03:00,79.3,68.4,29.86,West,270,13.0,15.0,72,0.01,,,0.22,meteohub,2013-02-08 13:03:00,
2013-02-08 09:07:00,78.6,68.4,29.87,West,270,8.0,16.0,74,0.01,,,0.22,meteohub,2013-02-08 13:07:00,
2013-02-08 09:08:00,78.6,68.4,29.87,NW,315,9.0,16.0,74,0.01,,,0.22,meteohub,2013-02-08 13:08:00,
2013-02-08 09:09:00,78.6,68.4,29.87,SSW,203,8.0,16.0,74,0.01,,,0.22,meteohub,2013-02-08 13:09:00,
2013-02-08 09:13:00,78.8,68.4,29.87,NW,315,8.0,16.0,74,0.01,,,0.22,meteohub,2013-02-08 13:13:00,
2013-02-08 09:14:00,78.8,68.4,29.87,NW,315,11.0,16.0,73,0.01,,,0.22,meteohub,2013-02-08 13:14:00,
2013-02-08 09:15:00,78.8,68.4,29.87,SW,225,6.0,16.0,73,0.01,,,0.22,meteohub,2013-02-08 13:15:00,
2013-02-08 09:19:00,78.6,68.4,29.87,NW,315,7.0,14.0,75,0.01,,,0.22,meteohub,2013-02-08 13:19:00,
2013-02-08 09:20:00,78.4,68.4,29.87,NW,315,5.0,14.0,75,0.01,,,0.22,meteohub,2013-02-08 13:20:00,
2013-02-08 09:24:00,78.6,68.7,29.87,West,270,11.0,13.0,76,0.01,,,0.22,meteohub,2013-02-08 13:24:00,
2013-02-08 09:25:00,78.6,68.7,29.87,West,270,8.0,11.0,76,0.00,,,0.22,meteohub,2013-02-08 13:25:00,
2013-02-08 09:26:00,78.8,68.9,29.87,NW,315,6.0,11.0,75,0.00,,,0.22,meteohub,2013-02-08 13:26:00,
2013-02-08 09:27:00,79.2,68.7,29.87,NE,45,6.0,11.0,75,0.00,,,0.22,meteohub,2013-02-08 13:27:00,
2013-02-08 09:30:00,80.4,68.9,29.87,North,0,8.0,11.0,73,0.00,,,0.22,meteohub,2013-02-08 13:30:00,
2013-02-08 09:32:00,81.0,68.9,29.87,NW,315,8.0,11.0,71,0.00,,,0.22,meteohub,2013-02-08 13:32:00,
2013-02-08 09:35:00,81.7,68.9,29.87,NW,315,8.0,12.0,68,0.00,,,0.22,meteohub,2013-02-08 13:35:00,
2013-02-08 09:36:00,81.7,68.9,29.87,NW,315,7.0,12.0,68,0.00,,,0.22,meteohub,2013-02-08 13:36:00,
2013-02-08 09:37:00,81.7,68.9,29.88,West,270,9.0,12.0,69,0.00,,,0.22,meteohub,2013-02-08 13:37:00,
2013-02-08 09:40:00,82.4,69.1,29.88,WNW,293,12.0,12.0,66,0.00,,,0.22,meteohub,2013-02-08 13:40:00,
2013-02-08 09:42:00,82.4,69.1,29.88,NW,315,10.0,12.0,66,0.00,,,0.22,meteohub,2013-02-08 13:42:00,
2013-02-08 09:44:00,82.4,69.1,29.88,NW,315,15.0,15.0,66,0.00,,,0.22,meteohub,2013-02-08 13:44:00,
2013-02-08 09:47:00,82.0,69.1,29.88,NW,315,8.0,14.0,67,0.00,,,0.22,meteohub,2013-02-08 13:47:00,
2013-02-08 09:50:00,82.4,69.1,29.88,NW,315,12.0,14.0,66,0.00,,,0.22,meteohub,2013-02-08 13:50:00,
2013-02-08 09:52:00,81.9,69.3,29.88,WSW,248,11.0,15.0,66,0.00,,,0.22,meteohub,2013-02-08 13:52:00,
2013-02-08 09:53:00,82.0,69.3,29.88,WNW,293,11.0,15.0,67,0.00,,,0.22,meteohub,2013-02-08 13:53:00,
2013-02-08 09:56:00,82.0,69.3,29.88,NW,315,11.0,16.0,66,0.00,,,0.22,meteohub,2013-02-08 13:56:00,
2013-02-08 09:57:00,82.0,69.3,29.88,NW,315,11.0,16.0,66,0.00,,,0.22,meteohub,2013-02-08 13:57:00,
2013-02-08 09:58:00,82.0,69.3,29.88,WNW,293,13.0,16.0,67,0.00,,,0.22,meteohub,2013-02-08 13:58:00,
2013-02-08 10:02:00,81.9,69.3,29.88,NW,315,11.0,21.0,66,0.00,,,0.22,meteohub,2013-02-08 14:02:00,
2013-02-08 10:03:00,82.0,69.3,29.88,NW,315,10.0,21.0,67,0.00,,,0.22,meteohub,2013-02-08 14:03:00,
2013-02-08 10:05:00,82.2,69.1,29.88,NW,315,11.0,21.0,67,0.00,,,0.22,meteohub,2013-02-08 14:05:00,
2013-02-08 10:07:00,82.4,69.4,29.88,NW,315,9.0,21.0,67,0.00,,,0.22,meteohub,2013-02-08 14:07:00,
2013-02-08 10:09:00,82.6,69.4,29.88,West,270,11.0,21.0,67,0.00,,,0.22,meteohub,2013-02-08 14:09:00,
2013-02-08 10:11:00,82.6,69.4,29.89,SW,225,12.0,17.0,67,0.00,,,0.22,meteohub,2013-02-08 14:11:00,
2013-02-08 10:12:00,82.6,69.4,29.88,SW,225,12.0,17.0,66,0.00,,,0.22,meteohub,2013-02-08 14:12:00,
2013-02-08 10:13:00,82.6,69.4,29.88,SW,225,12.0,17.0,66,0.00,,,0.22,meteohub,2013-02-08 14:13:00,
2013-02-08 10:15:00,82.8,69.4,29.89,West,270,12.0,17.0,67,0.00,,,0.22,meteohub,2013-02-08 14:15:00,
2013-02-08 10:16:00,82.8,69.4,29.89,NW,315,11.0,15.0,66,0.00,,,0.22,meteohub,2013-02-08 14:16:00,
2013-02-08 10:17:00,82.8,69.4,29.88,NW,315,11.0,15.0,66,0.00,,,0.22,meteohub,2013-02-08 14:17:00,
2013-02-08 10:18:00,82.8,69.6,29.89,NW,315,11.0,15.0,66,0.00,,,0.22,meteohub,2013-02-08 14:18:00,
2013-02-08 10:21:00,82.8,69.6,29.89,West,270,13.0,15.0,65,0.00,,,0.22,meteohub,2013-02-08 14:21:00,
2013-02-08 10:22:00,82.8,69.6,29.89,West,270,10.0,15.0,66,0.00,,,0.22,meteohub,2013-02-08 14:22:00,
2013-02-08 10:23:00,82.9,69.6,29.89,West,270,8.0,15.0,66,0.00,,,0.22,meteohub,2013-02-08 14:23:00,
2013-02-08 10:27:00,83.5,69.6,29.88,West,270,11.0,15.0,65,0.00,,,0.22,meteohub,2013-02-08 14:27:00,
2013-02-08 10:29:00,83.5,69.6,29.89,West,270,11.0,15.0,65,0.00,,,0.22,meteohub,2013-02-08 14:29:00,
2013-02-08 10:30:00,83.1,69.6,29.89,West,270,15.0,15.0,65,0.00,,,0.22,meteohub,2013-02-08 14:30:00,
2013-02-08 10:32:00,82.0,69.6,29.89,West,270,12.0,14.0,65,0.00,,,0.22,meteohub,2013-02-08 14:32:00,
2013-02-08 10:34:00,81.7,69.3,29.89,NW,315,6.0,14.0,66,0.00,,,0.22,meteohub,2013-02-08 14:34:00,
2013-02-08 10:35:00,81.7,69.3,29.89,West,270,4.0,15.0,67,0.00,,,0.22,meteohub,2013-02-08 14:35:00,
2013-02-08 10:36:00,81.7,69.3,29.89,WNW,293,11.0,15.0,68,0.00,,,0.22,meteohub,2013-02-08 14:36:00,
2013-02-08 10:39:00,81.7,69.3,29.89,West,270,11.0,15.0,71,0.00,,,0.22,meteohub,2013-02-08 14:39:00,
2013-02-08 10:41:00,81.1,69.3,29.89,SW,225,12.0,15.0,71,0.00,,,0.22,meteohub,2013-02-08 14:41:00,
2013-02-08 10:42:00,81.0,69.3,29.89,NW,315,13.0,15.0,72,0.00,,,0.22,meteohub,2013-02-08 14:42:00,
2013-02-08 10:44:00,81.0,69.6,29.89,SW,225,12.0,15.0,73,0.00,,,0.22,meteohub,2013-02-08 14:44:00,
2013-02-08 10:45:00,80.8,69.6,29.89,West,270,11.0,15.0,73,0.00,,,0.22,meteohub,2013-02-08 14:45:00,
2013-02-08 10:46:00,80.8,69.6,29.89,SW,225,11.0,15.0,74,0.00,,,0.22,meteohub,2013-02-08 14:46:00,
2013-02-08 10:47:00,80.8,69.6,29.89,WNW,293,11.0,15.0,74,0.00,,,0.22,meteohub,2013-02-08 14:47:00,
2013-02-08 10:50:00,80.4,69.6,29.89,WNW,293,9.0,15.0,75,0.00,,,0.22,meteohub,2013-02-08 14:50:00,
2013-02-08 10:51:00,80.4,70.0,29.89,WSW,248,11.0,14.0,76,0.00,,,0.22,meteohub,2013-02-08 14:51:00,
2013-02-08 10:52:00,80.4,70.0,29.89,WSW,248,11.0,14.0,76,0.00,,,0.22,meteohub,2013-02-08 14:52:00,
2013-02-08 10:55:00,80.4,70.0,29.89,West,270,10.0,14.0,75,0.00,,,0.22,meteohub,2013-02-08 14:55:00,
2013-02-08 10:57:00,80.2,70.0,29.89,NW,315,10.0,14.0,75,0.00,,,0.22,meteohub,2013-02-08 14:57:00,
2013-02-08 10:58:00,80.4,70.0,29.89,SW,225,10.0,14.0,76,0.00,,,0.22,meteohub,2013-02-08 14:58:00,
2013-02-08 11:00:00,80.4,70.0,29.89,West,270,15.0,15.0,75,0.00,,,0.22,meteohub,2013-02-08 15:00:00,
2013-02-08 11:03:00,80.8,70.0,29.89,SW,225,12.0,15.0,75,0.00,,,0.22,meteohub,2013-02-08 15:03:00,
2013-02-08 11:04:00,81.0,70.0,29.89,NW,315,17.0,17.0,75,0.00,,,0.22,meteohub,2013-02-08 15:04:00,
2013-02-08 11:06:00,81.0,70.0,29.89,SW,225,13.0,15.0,76,0.00,,,0.22,meteohub,2013-02-08 15:06:00,
2013-02-08 11:09:00,80.8,70.0,29.88,South,180,11.0,15.0,76,0.00,,,0.22,meteohub,2013-02-08 15:09:00,
2013-02-08 11:11:00,80.6,70.2,29.88,SW,225,11.0,17.0,76,0.00,,,0.22,meteohub,2013-02-08 15:11:00,
2013-02-08 11:12:00,80.4,70.0,29.88,West,270,11.0,17.0,77,0.00,,,0.22,meteohub,2013-02-08 15:12:00,
2013-02-08 11:17:00,80.8,70.7,29.88,NW,315,13.0,17.0,76,0.00,,,0.22,meteohub,2013-02-08 15:17:00,
2013-02-08 11:18:00,81.0,70.7,29.88,West,270,9.0,17.0,75,0.00,,,0.22,meteohub,2013-02-08 15:18:00,
2013-02-08 11:20:00,81.3,70.5,29.88,NW,315,10.0,15.0,75,0.00,,,0.22,meteohub,2013-02-08 15:20:00,
2013-02-08 11:22:00,81.9,70.7,29.88,North,0,12.0,15.0,73,0.00,,,0.22,meteohub,2013-02-08 15:22:00,
2013-02-08 11:24:00,82.4,70.7,29.88,West,270,11.0,15.0,69,0.00,,,0.22,meteohub,2013-02-08 15:24:00,
2013-02-08 11:27:00,83.3,70.7,29.88,SSW,203,13.0,15.0,69,0.00,,,0.22,meteohub,2013-02-08 15:27:00,
2013-02-08 11:28:00,83.5,70.7,29.88,NW,315,12.0,15.0,69,0.00,,,0.22,meteohub,2013-02-08 15:28:00,
2013-02-08 11:29:00,83.5,70.7,29.88,NW,315,15.0,15.0,68,0.00,,,0.22,meteohub,2013-02-08 15:29:00,
2013-02-08 11:30:00,83.5,70.7,29.88,NW,315,14.0,15.0,68,0.00,,,0.22,meteohub,2013-02-08 15:30:00,
2013-02-08 11:32:00,83.8,70.7,29.88,SW,225,13.0,15.0,67,0.00,,,0.22,meteohub,2013-02-08 15:32:00,
2013-02-08 11:34:00,83.5,70.7,29.88,SW,225,9.0,15.0,67,0.00,,,0.22,meteohub,2013-02-08 15:34:00,
2013-02-08 11:35:00,83.5,70.7,29.88,SW,225,8.0,15.0,67,0.00,,,0.22,meteohub,2013-02-08 15:35:00,
2013-02-08 11:39:00,83.3,70.3,29.87,West,270,14.0,15.0,66,0.00,,,0.22,meteohub,2013-02-08 15:39:00,
2013-02-08 11:40:00,82.8,70.3,29.87,West,270,15.0,17.0,67,0.00,,,0.22,meteohub,2013-02-08 15:40:00,
2013-02-08 11:41:00,82.4,70.3,29.87,SW,225,14.0,17.0,68,0.00,,,0.22,meteohub,2013-02-08 15:41:00,
2013-02-08 11:42:00,82.4,70.3,29.87,SW,225,14.0,17.0,68,0.00,,,0.22,meteohub,2013-02-08 15:42:00,
2013-02-08 11:44:00,81.7,70.3,29.87,NW,315,16.0,17.0,71,0.00,,,0.22,meteohub,2013-02-08 15:44:00,
2013-02-08 11:47:00,81.3,70.3,29.87,West,270,11.0,17.0,71,0.00,,,0.22,meteohub,2013-02-08 15:47:00,
2013-02-08 11:49:00,81.9,70.3,29.87,NW,315,9.0,17.0,72,0.00,,,0.22,meteohub,2013-02-08 15:49:00,
2013-02-08 11:50:00,82.0,70.3,29.87,West,270,12.0,17.0,72,0.00,,,0.22,meteohub,2013-02-08 15:50:00,
2013-02-08 11:52:00,82.2,70.3,29.86,WNW,293,11.0,17.0,73,0.00,,,0.22,meteohub,2013-02-08 15:52:00,
2013-02-08 11:53:00,82.4,70.3,29.87,SW,225,11.0,17.0,73,0.00,,,0.22,meteohub,2013-02-08 15:53:00,
2013-02-08 11:56:00,82.4,70.3,29.86,NW,315,11.0,17.0,70,0.00,,,0.22,meteohub,2013-02-08 15:56:00,
2013-02-08 11:57:00,82.4,70.3,29.86,West,270,13.0,17.0,70,0.00,,,0.22,meteohub,2013-02-08 15:57:00,
2013-02-08 11:58:00,82.2,70.3,29.86,West,270,16.0,17.0,71,0.00,,,0.22,meteohub,2013-02-08 15:58:00,
2013-02-08 12:02:00,82.2,70.5,29.86,SW,225,16.0,17.0,72,0.00,,,0.22,meteohub,2013-02-08 16:02:00,
2013-02-08 12:03:00,82.2,70.5,29.86,NW,315,16.0,17.0,71,0.00,,,0.22,meteohub,2013-02-08 16:03:00,
2013-02-08 12:04:00,82.2,70.5,29.86,West,270,18.0,18.0,71,0.00,,,0.22,meteohub,2013-02-08 16:04:00,
2013-02-08 12:07:00,81.9,70.5,29.86,West,270,18.0,18.0,69,0.00,,,0.22,meteohub,2013-02-08 16:07:00,
2013-02-08 12:08:00,81.9,70.5,29.86,SSW,203,20.0,20.0,69,0.00,,,0.22,meteohub,2013-02-08 16:08:00,
2013-02-08 12:09:00,81.9,70.5,29.86,SSW,203,20.0,20.0,69,0.00,,,0.22,meteohub,2013-02-08 16:09:00,
2013-02-08 12:13:00,82.0,70.5,29.86,West,270,17.0,21.0,71,0.00,,,0.22,meteohub,2013-02-08 16:13:00,
2013-02-08 12:15:00,82.2,70.5,29.86,West,270,21.0,21.0,70,0.00,,,0.22,meteohub,2013-02-08 16:15:00,
2013-02-08 12:16:00,82.0,70.5,29.86,NW,315,18.0,21.0,69,0.00,,,0.22,meteohub,2013-02-08 16:16:00,
2013-02-08 12:19:00,82.2,70.5,29.86,SW,225,19.0,21.0,71,0.00,,,0.22,meteohub,2013-02-08 16:19:00,
2013-02-08 12:20:00,82.0,70.5,29.86,West,270,21.0,21.0,70,0.00,,,0.22,meteohub,2013-02-08 16:20:00,
2013-02-08 12:21:00,82.0,70.5,29.86,SW,225,17.0,21.0,68,0.00,,,0.22,meteohub,2013-02-08 16:21:00,
2013-02-08 12:22:00,81.9,70.5,29.86,West,270,20.0,21.0,69,0.00,,,0.22,meteohub,2013-02-08 16:22:00,
2013-02-08 12:25:00,81.5,70.5,29.86,SW,225,18.0,21.0,70,0.00,,,0.22,meteohub,2013-02-08 16:25:00,
2013-02-08 12:26:00,81.5,70.5,29.86,WNW,293,16.0,21.0,70,0.00,,,0.22,meteohub,2013-02-08 16:26:00,
2013-02-08 12:27:00,81.7,70.5,29.86,West,270,17.0,21.0,71,0.00,,,0.22,meteohub,2013-02-08 16:27:00,
2013-02-08 12:31:00,81.7,70.3,29.85,West,270,17.0,21.0,70,0.00,,,0.22,meteohub,2013-02-08 16:31:00,
2013-02-08 12:32:00,81.7,70.3,29.86,West,270,17.0,21.0,70,0.00,,,0.22,meteohub,2013-02-08 16:32:00,
2013-02-08 12:37:00,82.4,70.5,29.86,NNW,338,16.0,21.0,68,0.00,,,0.22,meteohub,2013-02-08 16:37:00,
2013-02-08 12:38:00,81.9,70.3,29.85,NW,315,13.0,21.0,68,0.00,,,0.22,meteohub,2013-02-08 16:38:00,
2013-02-08 12:39:00,81.9,70.5,29.85,West,270,13.0,21.0,69,0.00,,,0.22,meteohub,2013-02-08 16:39:00,
2013-02-08 12:41:00,82.0,70.0,29.85,NW,315,15.0,20.0,70,0.00,,,0.22,meteohub,2013-02-08 16:41:00,
2013-02-08 12:42:00,82.0,70.0,29.85,NW,315,15.0,20.0,70,0.00,,,0.22,meteohub,2013-02-08 16:42:00,
2013-02-08 12:44:00,82.0,70.0,29.85,West,270,18.0,20.0,70,0.00,,,0.22,meteohub,2013-02-08 16:44:00,
2013-02-08 12:45:00,82.0,70.0,29.85,WNW,293,14.0,20.0,69,0.00,,,0.22,meteohub,2013-02-08 16:45:00,
2013-02-08 12:46:00,82.0,70.0,29.85,NW,315,17.0,20.0,69,0.00,,,0.22,meteohub,2013-02-08 16:46:00,
2013-02-08 12:47:00,82.0,70.0,29.85,SW,225,14.0,20.0,69,0.00,,,0.22,meteohub,2013-02-08 16:47:00,
2013-02-08 12:50:00,81.3,70.0,29.85,SW,225,17.0,20.0,68,0.00,,,0.22,meteohub,2013-02-08 16:50:00,
2013-02-08 12:51:00,81.3,70.0,29.85,West,270,15.0,20.0,69,0.00,,,0.22,meteohub,2013-02-08 16:51:00,
2013-02-08 12:53:00,81.3,70.0,29.85,West,270,11.0,20.0,70,0.00,,,0.22,meteohub,2013-02-08 16:53:00,
2013-02-08 12:56:00,82.0,70.0,29.84,SW,225,17.0,20.0,69,0.00,,,0.22,meteohub,2013-02-08 16:56:00,
2013-02-08 12:57:00,82.2,70.0,29.84,West,270,16.0,20.0,70,0.00,,,0.22,meteohub,2013-02-08 16:57:00,
2013-02-08 12:58:00,82.0,70.0,29.84,SW,225,15.0,20.0,69,0.00,,,0.22,meteohub,2013-02-08 16:58:00,
2013-02-08 12:59:00,82.0,70.0,29.84,West,270,13.0,20.0,69,0.00,,,0.22,meteohub,2013-02-08 16:59:00,
2013-02-08 13:02:00,81.9,70.0,29.84,SW,225,16.0,20.0,70,0.00,,,0.22,meteohub,2013-02-08 17:02:00,
2013-02-08 13:04:00,82.0,70.0,29.84,WSW,248,11.0,20.0,69,0.00,,,0.22,meteohub,2013-02-08 17:04:00,
2013-02-08 13:06:00,82.2,70.0,29.84,NW,315,16.0,17.0,69,0.00,,,0.22,meteohub,2013-02-08 17:06:00,
2013-02-08 13:08:00,82.4,70.0,29.84,WNW,293,18.0,18.0,68,0.00,,,0.22,meteohub,2013-02-08 17:08:00,
2013-02-08 13:09:00,82.2,70.0,29.84,NW,315,17.0,17.0,68,0.00,,,0.22,meteohub,2013-02-08 17:09:00,
2013-02-08 13:11:00,82.0,70.0,29.84,West,270,11.0,18.0,69,0.00,,,0.22,meteohub,2013-02-08 17:11:00,
2013-02-08 13:13:00,81.9,70.0,29.84,NW,315,11.0,18.0,71,0.00,,,0.22,meteohub,2013-02-08 17:13:00,
2013-02-08 13:15:00,82.4,70.0,29.84,NW,315,13.0,18.0,69,0.00,,,0.22,meteohub,2013-02-08 17:15:00,
2013-02-08 13:16:00,82.8,70.0,29.84,NW,315,17.0,18.0,67,0.00,,,0.22,meteohub,2013-02-08 17:16:00,
2013-02-08 13:17:00,82.8,70.0,29.84,NW,315,15.0,18.0,67,0.00,,,0.22,meteohub,2013-02-08 17:17:00,
2013-02-08 13:20:00,81.9,70.0,29.83,SW,225,16.0,18.0,68,0.00,,,0.22,meteohub,2013-02-08 17:20:00,
2013-02-08 13:21:00,81.9,70.0,29.83,West,270,17.0,18.0,69,0.00,,,0.22,meteohub,2013-02-08 17:21:00,
2013-02-08 13:23:00,81.9,70.0,29.83,SW,225,14.0,18.0,70,0.00,,,0.22,meteohub,2013-02-08 17:23:00,
2013-02-08 13:27:00,81.5,70.0,29.83,North,0,11.0,17.0,71,0.00,,,0.22,meteohub,2013-02-08 17:27:00,
2013-02-08 13:28:00,81.3,70.0,29.83,North,0,13.0,17.0,71,0.00,,,0.22,meteohub,2013-02-08 17:28:00,
2013-02-08 13:33:00,80.6,70.0,29.83,SW,225,11.0,17.0,72,0.00,,,0.22,meteohub,2013-02-08 17:33:00,
2013-02-08 13:34:00,80.6,70.0,29.83,West,270,9.0,17.0,72,0.00,,,0.22,meteohub,2013-02-08 17:34:00,
2013-02-08 13:35:00,80.6,70.0,29.83,West,270,15.0,17.0,72,0.00,,,0.22,meteohub,2013-02-08 17:35:00,
2013-02-08 13:39:00,80.1,69.4,29.83,SW,225,10.0,17.0,73,0.00,,,0.22,meteohub,2013-02-08 17:39:00,
2013-02-08 13:40:00,79.9,69.4,29.83,NW,315,11.0,15.0,73,0.00,,,0.22,meteohub,2013-02-08 17:40:00,
2013-02-08 13:42:00,79.7,69.4,29.83,West,270,15.0,15.0,73,0.00,,,0.22,meteohub,2013-02-08 17:42:00,
2013-02-08 13:43:00,79.5,69.6,29.83,West,270,14.0,15.0,73,0.00,,,0.22,meteohub,2013-02-08 17:43:00,
2013-02-08 13:46:00,79.2,69.4,29.84,NW,315,14.0,15.0,73,0.00,,,0.22,meteohub,2013-02-08 17:46:00,
2013-02-08 13:47:00,79.0,69.6,29.84,West,270,13.0,15.0,74,0.00,,,0.22,meteohub,2013-02-08 17:47:00,
2013-02-08 13:48:00,78.8,69.4,29.84,West,270,15.0,15.0,74,0.00,,,0.22,meteohub,2013-02-08 17:48:00,
2013-02-08 13:49:00,78.8,69.4,29.84,NW,315,12.0,15.0,74,0.00,,,0.22,meteohub,2013-02-08 17:49:00,
2013-02-08 13:51:00,78.6,69.6,29.84,NW,315,9.0,15.0,76,0.00,,,0.22,meteohub,2013-02-08 17:51:00,
2013-02-08 13:52:00,78.4,69.6,29.84,NNE,23,6.0,15.0,76,0.00,,,0.22,meteohub,2013-02-08 17:52:00,
2013-02-08 13:53:00,78.4,69.6,29.84,NNE,23,6.0,15.0,76,0.00,,,0.22,meteohub,2013-02-08 17:53:00,
2013-02-08 13:55:00,78.6,69.4,29.84,NE,45,6.0,15.0,75,0.00,,,0.22,meteohub,2013-02-08 17:55:00,
2013-02-08 13:57:00,78.6,69.6,29.84,SE,135,4.0,15.0,75,0.00,,,0.22,meteohub,2013-02-08 17:57:00,
2013-02-08 13:58:00,78.8,69.4,29.84,East,90,4.0,15.0,74,0.00,,,0.22,meteohub,2013-02-08 17:58:00,
2013-02-08 14:00:00,79.0,69.4,29.84,SE,135,10.0,15.0,74,0.00,,,0.22,meteohub,2013-02-08 18:00:00,
2013-02-08 14:04:00,77.7,69.6,29.84,NE,45,7.0,15.0,78,0.00,,,0.22,meteohub,2013-02-08 18:04:00,
2013-02-08 14:05:00,77.4,69.4,29.84,North,0,8.0,12.0,79,0.00,,,0.22,meteohub,2013-02-08 18:05:00,
2013-02-08 14:06:00,77.4,69.4,29.84,North,0,8.0,12.0,79,0.00,,,0.22,meteohub,2013-02-08 18:06:00,
2013-02-08 14:08:00,76.5,69.4,29.84,NNE,23,13.0,13.0,82,0.00,,,0.22,meteohub,2013-02-08 18:08:00,
2013-02-08 14:10:00,75.9,69.4,29.84,North,0,7.0,15.0,84,0.00,,,0.22,meteohub,2013-02-08 18:10:00,
2013-02-08 14:11:00,75.7,69.4,29.84,NE,45,8.0,15.0,84,0.00,,,0.22,meteohub,2013-02-08 18:11:00,
2013-02-08 14:13:00,75.2,69.6,29.84,NE,45,7.0,15.0,86,0.00,,,0.22,meteohub,2013-02-08 18:13:00,
2013-02-08 14:16:00,74.5,70.0,29.83,East,90,7.0,15.0,88,0.04,,,0.26,meteohub,2013-02-08 18:16:00,
2013-02-08 14:17:00,74.3,70.2,29.84,North,0,5.0,15.0,88,0.04,,,0.26,meteohub,2013-02-08 18:17:00,
2013-02-08 14:18:00,73.9,70.0,29.83,NNE,23,7.0,15.0,89,0.04,,,0.26,meteohub,2013-02-08 18:18:00,
2013-02-08 14:20:00,73.8,70.0,29.83,NNE,23,4.0,15.0,90,0.05,,,0.27,meteohub,2013-02-08 18:20:00,
2013-02-08 14:21:00,73.8,70.0,29.83,NNE,23,4.0,15.0,90,0.05,,,0.27,meteohub,2013-02-08 18:21:00,
2013-02-08 14:22:00,73.8,70.2,29.83,North,0,5.0,15.0,91,0.05,,,0.27,meteohub,2013-02-08 18:22:00,
2013-02-08 14:24:00,73.8,70.2,29.83,NNE,23,5.0,15.0,91,0.05,,,0.27,meteohub,2013-02-08 18:24:00,
2013-02-08 14:29:00,73.6,70.5,29.83,NE,45,8.0,9.0,92,0.05,,,0.27,meteohub,2013-02-08 18:29:00,
2013-02-08 14:30:00,73.6,70.5,29.83,NE,45,7.0,9.0,92,0.05,,,0.27,meteohub,2013-02-08 18:30:00,
2013-02-08 14:31:00,73.6,70.5,29.83,NE,45,8.0,8.0,92,0.05,,,0.27,meteohub,2013-02-08 18:31:00,
2013-02-08 14:33:00,73.4,70.5,29.83,NE,45,8.0,8.0,93,0.05,,,0.27,meteohub,2013-02-08 18:33:00,
2013-02-08 14:34:00,73.4,70.3,29.83,NE,45,6.0,8.0,93,0.05,,,0.27,meteohub,2013-02-08 18:34:00,
2013-02-08 14:36:00,73.4,70.3,29.83,NE,45,6.0,10.0,93,0.05,,,0.27,meteohub,2013-02-08 18:36:00,
2013-02-08 14:38:00,73.4,70.3,29.83,NE,45,6.0,10.0,93,0.05,,,0.27,meteohub,2013-02-08 18:38:00,
2013-02-08 14:40:00,73.6,70.3,29.83,NNE,23,5.0,10.0,93,0.05,,,0.27,meteohub,2013-02-08 18:40:00,
2013-02-08 14:41:00,73.6,70.3,29.83,NE,45,4.0,10.0,93,0.05,,,0.27,meteohub,2013-02-08 18:41:00,
2013-02-08 14:45:00,73.9,70.3,29.83,East,90,2.0,10.0,93,0.05,,,0.27,meteohub,2013-02-08 18:45:00,
2013-02-08 14:46:00,74.1,70.3,29.83,East,90,7.0,10.0,94,0.05,,,0.27,meteohub,2013-02-08 18:46:00,
2013-02-08 14:47:00,74.1,70.3,29.83,East,90,5.0,10.0,93,0.05,,,0.27,meteohub,2013-02-08 18:47:00,
2013-02-08 14:52:00,74.5,70.3,29.83,East,90,4.0,7.0,93,0.05,,,0.27,meteohub,2013-02-08 18:52:00,
2013-02-08 14:53:00,74.7,70.3,29.83,East,90,3.0,7.0,93,0.05,,,0.27,meteohub,2013-02-08 18:53:00,
2013-02-08 14:57:00,75.0,70.3,29.83,East,90,4.0,7.0,93,0.05,,,0.27,meteohub,2013-02-08 18:57:00,
2013-02-08 14:58:00,75.0,70.3,29.83,NE,45,5.0,7.0,93,0.05,,,0.27,meteohub,2013-02-08 18:58:00,
2013-02-08 14:59:00,75.0,70.5,29.83,East,90,2.0,7.0,92,0.05,,,0.27,meteohub,2013-02-08 18:59:00,
2013-02-08 15:02:00,75.4,70.5,29.82,East,90,4.0,7.0,91,0.05,,,0.27,meteohub,2013-02-08 19:02:00,
2013-02-08 15:03:00,75.4,70.5,29.82,East,90,4.0,7.0,91,0.05,,,0.27,meteohub,2013-02-08 19:03:00,
2013-02-08 15:05:00,75.7,70.9,29.82,NE,45,3.0,5.0,91,0.05,,,0.27,meteohub,2013-02-08 19:05:00,
2013-02-08 15:06:00,75.9,70.9,29.82,SE,135,4.0,5.0,91,0.05,,,0.27,meteohub,2013-02-08 19:06:00,
2013-02-08 15:07:00,75.9,70.9,29.82,East,90,6.0,6.0,91,0.05,,,0.27,meteohub,2013-02-08 19:07:00,
2013-02-08 15:08:00,75.9,70.9,29.82,East,90,5.0,5.0,91,0.05,,,0.27,meteohub,2013-02-08 19:08:00,
2013-02-08 15:11:00,76.3,70.9,29.82,SE,135,7.0,7.0,90,0.05,,,0.27,meteohub,2013-02-08 19:11:00,
2013-02-08 15:12:00,76.3,70.9,29.82,SE,135,7.0,7.0,90,0.05,,,0.27,meteohub,2013-02-08 19:12:00,
2013-02-08 15:14:00,75.9,70.9,29.82,NE,45,4.0,6.0,88,0.05,,,0.27,meteohub,2013-02-08 19:14:00,
2013-02-08 15:17:00,75.9,70.9,29.82,East,90,5.0,7.0,87,0.01,,,0.27,meteohub,2013-02-08 19:17:00,
2013-02-08 15:18:00,75.9,70.9,29.82,NE,45,5.0,7.0,86,0.01,,,0.27,meteohub,2013-02-08 19:18:00,
2013-02-08 15:19:00,75.9,70.9,29.82,NE,45,5.0,7.0,86,0.01,,,0.27,meteohub,2013-02-08 19:19:00,
2013-02-08 15:20:00,75.9,70.9,29.82,East,90,4.0,7.0,86,0.00,,,0.27,meteohub,2013-02-08 19:20:00,
2013-02-08 15:23:00,75.9,70.7,29.82,SE,135,6.0,7.0,86,0.00,,,0.27,meteohub,2013-02-08 19:23:00,
2013-02-08 15:25:00,75.7,70.7,29.82,East,90,4.0,7.0,86,0.00,,,0.27,meteohub,2013-02-08 19:25:00,
2013-02-08 15:26:00,75.7,70.7,29.82,SE,135,3.0,7.0,86,0.00,,,0.27,meteohub,2013-02-08 19:26:00,
2013-02-08 15:30:00,75.7,70.7,29.82,North,0,4.0,6.0,86,0.00,,,0.27,meteohub,2013-02-08 19:30:00,
2013-02-08 15:31:00,75.7,70.7,29.82,East,90,4.0,6.0,86,0.00,,,0.27,meteohub,2013-02-08 19:31:00,
2013-02-08 15:35:00,75.4,70.7,29.83,NE,45,3.0,6.0,86,0.00,,,0.27,meteohub,2013-02-08 19:35:00,
2013-02-08 15:36:00,75.4,70.7,29.82,NE,45,3.0,6.0,86,0.00,,,0.27,meteohub,2013-02-08 19:36:00,
2013-02-08 15:37:00,75.4,70.7,29.82,NE,45,3.0,6.0,87,0.00,,,0.27,meteohub,2013-02-08 19:37:00,
2013-02-08 15:38:00,75.4,70.7,29.82,East,90,3.0,6.0,87,0.00,,,0.27,meteohub,2013-02-08 19:38:00,
2013-02-08 15:40:00,75.4,70.7,29.82,NNW,338,4.0,5.0,87,0.00,,,0.27,meteohub,2013-02-08 19:40:00,
2013-02-08 15:42:00,75.4,70.7,29.82,North,0,4.0,5.0,88,0.00,,,0.27,meteohub,2013-02-08 19:42:00,
2013-02-08 15:44:00,75.2,70.7,29.82,ENE,68,4.0,5.0,88,0.00,,,0.27,meteohub,2013-02-08 19:44:00,
2013-02-08 15:47:00,75.2,70.9,29.82,NE,45,3.0,5.0,88,0.00,,,0.27,meteohub,2013-02-08 19:47:00,
2013-02-08 15:49:00,75.4,70.7,29.82,North,0,6.0,6.0,89,0.00,,,0.27,meteohub,2013-02-08 19:49:00,
2013-02-08 15:50:00,75.2,70.7,29.83,North,0,4.0,5.0,89,0.00,,,0.27,meteohub,2013-02-08 19:50:00,
2013-02-08 15:54:00,75.0,70.7,29.82,NE,45,3.0,6.0,90,0.00,,,0.27,meteohub,2013-02-08 19:54:00,
2013-02-08 15:55:00,75.0,70.7,29.82,NE,45,3.0,6.0,90,0.00,,,0.27,meteohub,2013-02-08 19:55:00,
2013-02-08 15:57:00,74.8,70.7,29.82,SE,135,2.0,6.0,89,0.00,,,0.27,meteohub,2013-02-08 19:57:00,
2013-02-08 15:59:00,75.0,70.9,29.82,NE,45,2.0,6.0,89,0.00,,,0.27,meteohub,2013-02-08 19:59:00,
2013-02-08 16:01:00,75.0,70.9,29.82,North,0,2.0,6.0,89,0.00,,,0.27,meteohub,2013-02-08 20:01:00,
2013-02-08 16:02:00,75.0,70.9,29.82,North,0,2.0,6.0,89,0.00,,,0.27,meteohub,2013-02-08 20:02:00,
2013-02-08 16:04:00,75.0,70.9,29.82,SE,135,0.0,6.0,89,0.00,,,0.27,meteohub,2013-02-08 20:04:00,
2013-02-08 16:07:00,75.4,70.9,29.82,West,270,0.0,4.0,89,0.00,,,0.27,meteohub,2013-02-08 20:07:00,
2013-02-08 16:09:00,75.4,70.9,29.82,NNW,338,4.0,4.0,89,0.00,,,0.27,meteohub,2013-02-08 20:09:00,
2013-02-08 16:10:00,75.4,70.9,29.82,North,0,3.0,3.0,88,0.00,,,0.27,meteohub,2013-02-08 20:10:00,
2013-02-08 16:12:00,75.4,70.9,29.82,NW,315,5.0,5.0,88,0.00,,,0.27,meteohub,2013-02-08 20:12:00,
2013-02-08 16:14:00,75.0,70.5,29.82,North,0,4.0,4.0,87,0.00,,,0.27,meteohub,2013-02-08 20:14:00,
2013-02-08 16:15:00,75.0,70.5,29.82,West,270,2.0,5.0,87,0.01,,,0.28,meteohub,2013-02-08 20:15:00,
2013-02-08 16:17:00,75.2,70.5,29.82,West,270,4.0,5.0,86,0.01,,,0.28,meteohub,2013-02-08 20:17:00,
2013-02-08 16:20:00,75.0,70.3,29.82,West,270,2.0,5.0,86,0.01,,,0.28,meteohub,2013-02-08 20:20:00,
2013-02-08 16:21:00,75.2,70.3,29.82,West,270,4.0,5.0,85,0.01,,,0.28,meteohub,2013-02-08 20:21:00,
2013-02-08 16:22:00,75.2,70.3,29.82,West,270,4.0,5.0,85,0.01,,,0.28,meteohub,2013-02-08 20:22:00,
2013-02-08 16:25:00,75.0,70.3,29.82,West,270,2.0,5.0,87,0.01,,,0.28,meteohub,2013-02-08 20:25:00,
2013-02-08 16:27:00,75.0,70.3,29.82,West,270,2.0,5.0,87,0.01,,,0.28,meteohub,2013-02-08 20:27:00,
2013-02-08 16:28:00,75.0,70.3,29.82,West,270,2.0,5.0,87,0.01,,,0.28,meteohub,2013-02-08 20:28:00,
2013-02-08 16:33:00,75.0,70.3,29.82,West,270,3.0,5.0,86,0.02,,,0.30,meteohub,2013-02-08 20:33:00,
2013-02-08 16:34:00,75.0,70.3,29.82,SW,225,2.0,5.0,86,0.02,,,0.30,meteohub,2013-02-08 20:34:00,
2013-02-08 16:35:00,75.0,70.3,29.82,SW,225,1.0,5.0,86,0.02,,,0.30,meteohub,2013-02-08 20:35:00,
2013-02-08 16:38:00,75.0,70.3,29.82,West,270,0.0,4.0,87,0.02,,,0.30,meteohub,2013-02-08 20:38:00,
2013-02-08 16:39:00,75.0,70.3,29.82,North,0,0.0,4.0,87,0.02,,,0.30,meteohub,2013-02-08 20:39:00,
2013-02-08 16:40:00,75.2,70.2,29.82,North,0,0.0,3.0,86,0.02,,,0.30,meteohub,2013-02-08 20:40:00,
2013-02-08 16:44:00,75.4,70.2,29.81,NE,45,3.0,3.0,87,0.02,,,0.30,meteohub,2013-02-08 20:44:00,
2013-02-08 16:47:00,75.4,70.2,29.82,SE,135,2.0,3.0,87,0.02,,,0.30,meteohub,2013-02-08 20:47:00,
2013-02-08 16:48:00,75.4,70.2,29.82,South,180,0.0,3.0,87,0.02,,,0.30,meteohub,2013-02-08 20:48:00,
2013-02-08 16:51:00,75.9,70.7,29.82,South,180,1.0,3.0,88,0.02,,,0.30,meteohub,2013-02-08 20:51:00,
2013-02-08 16:52:00,76.1,70.7,29.82,South,180,2.0,3.0,88,0.02,,,0.30,meteohub,2013-02-08 20:52:00,
2013-02-08 16:55:00,76.1,70.9,29.82,SW,225,3.0,3.0,88,0.02,,,0.30,meteohub,2013-02-08 20:55:00,
2013-02-08 16:57:00,76.3,70.9,29.82,SW,225,4.0,4.0,88,0.02,,,0.30,meteohub,2013-02-08 20:57:00,
2013-02-08 17:00:00,75.9,70.9,29.82,SW,225,4.0,4.0,88,0.02,,,0.30,meteohub,2013-02-08 21:00:00,
2013-02-08 17:02:00,75.9,70.9,29.82,SW,225,4.0,4.0,88,0.02,,,0.30,meteohub,2013-02-08 21:02:00,
2013-02-08 17:03:00,75.7,70.9,29.82,West,270,3.0,4.0,88,0.02,,,0.30,meteohub,2013-02-08 21:03:00,
2013-02-08 17:06:00,75.4,70.9,29.82,West,270,5.0,5.0,88,0.02,,,0.30,meteohub,2013-02-08 21:06:00,
2013-02-08 17:09:00,75.4,70.9,29.83,South,180,5.0,5.0,88,0.02,,,0.30,meteohub,2013-02-08 21:09:00,
2013-02-08 17:11:00,75.6,70.9,29.83,West,270,5.0,5.0,88,0.02,,,0.30,meteohub,2013-02-08 21:11:00,
2013-02-08 17:12:00,75.6,70.9,29.83,NW,315,7.0,7.0,89,0.02,,,0.30,meteohub,2013-02-08 21:12:00,
2013-02-08 17:14:00,75.4,70.9,29.83,SW,225,6.0,6.0,89,0.02,,,0.30,meteohub,2013-02-08 21:14:00,
2013-02-08 17:15:00,75.0,70.9,29.83,SW,225,6.0,8.0,90,0.01,,,0.30,meteohub,2013-02-08 21:15:00,
2013-02-08 17:17:00,75.0,70.9,29.83,West,270,8.0,8.0,89,0.01,,,0.30,meteohub,2013-02-08 21:17:00,
2013-02-08 17:18:00,74.8,70.9,29.83,SW,225,8.0,8.0,89,0.01,,,0.30,meteohub,2013-02-08 21:18:00,
2013-02-08 17:20:00,74.7,70.9,29.83,NW,315,8.0,8.0,89,0.01,,,0.30,meteohub,2013-02-08 21:20:00,
2013-02-08 17:21:00,74.5,70.9,29.83,West,270,8.0,8.0,89,0.01,,,0.30,meteohub,2013-02-08 21:21:00,
2013-02-08 17:22:00,74.5,70.9,29.83,West,270,8.0,8.0,89,0.01,,,0.30,meteohub,2013-02-08 21:22:00,
2013-02-08 17:27:00,74.1,70.7,29.83,SW,225,11.0,11.0,90,0.00,,,0.30,meteohub,2013-02-08 21:27:00,
2013-02-08 17:28:00,73.9,70.7,29.83,West,270,15.0,15.0,90,0.00,,,0.30,meteohub,2013-02-08 21:28:00,
2013-02-08 17:29:00,73.8,70.7,29.83,West,270,12.0,12.0,90,0.00,,,0.30,meteohub,2013-02-08 21:29:00,
2013-02-08 17:30:00,73.4,70.7,29.84,SW,225,10.0,10.0,90,0.00,,,0.30,meteohub,2013-02-08 21:30:00,
2013-02-08 17:35:00,72.7,70.0,29.83,West,270,8.0,15.0,91,0.00,,,0.30,meteohub,2013-02-08 21:35:00,
2013-02-08 17:36:00,72.5,70.0,29.83,SW,225,8.0,15.0,91,0.01,,,0.31,meteohub,2013-02-08 21:36:00,
2013-02-08 17:37:00,72.3,70.0,29.84,WSW,248,9.0,15.0,92,0.01,,,0.31,meteohub,2013-02-08 21:37:00,
2013-02-08 17:41:00,72.1,70.0,29.83,West,270,8.0,15.0,92,0.02,,,0.32,meteohub,2013-02-08 21:41:00,
2013-02-08 17:42:00,72.0,70.0,29.83,SW,225,8.0,15.0,92,0.02,,,0.32,meteohub,2013-02-08 21:42:00,
2013-02-08 17:47:00,71.8,69.8,29.83,SW,225,4.0,10.0,93,0.02,,,0.32,meteohub,2013-02-08 21:47:00,
2013-02-08 17:49:00,71.8,69.8,29.83,SW,225,4.0,10.0,93,0.02,,,0.32,meteohub,2013-02-08 21:49:00,
2013-02-08 17:52:00,71.8,69.8,29.83,South,180,4.0,10.0,94,0.02,,,0.32,meteohub,2013-02-08 21:52:00,
2013-02-08 17:53:00,71.6,69.8,29.83,SW,225,4.0,10.0,94,0.02,,,0.32,meteohub,2013-02-08 21:53:00,
2013-02-08 17:54:00,71.6,69.8,29.83,SW,225,4.0,10.0,94,0.02,,,0.32,meteohub,2013-02-08 21:54:00,
2013-02-08 17:57:00,71.6,69.8,29.83,SW,225,4.0,10.0,94,0.04,,,0.33,meteohub,2013-02-08 21:57:00,
2013-02-08 18:00:00,71.6,69.8,29.83,South,180,4.0,10.0,94,0.04,,,0.33,meteohub,2013-02-08 22:00:00,
2013-02-08 18:01:00,71.6,69.8,29.83,South,180,3.0,4.0,94,0.04,,,0.33,meteohub,2013-02-08 22:01:00,
2013-02-08 18:05:00,71.6,69.8,29.83,West,270,2.0,4.0,94,0.04,,,0.33,meteohub,2013-02-08 22:05:00,
2013-02-08 18:06:00,71.6,69.8,29.83,WNW,293,2.0,4.0,94,0.04,,,0.33,meteohub,2013-02-08 22:06:00,
2013-02-08 18:07:00,71.6,69.8,29.83,NW,315,2.0,4.0,94,0.04,,,0.33,meteohub,2013-02-08 22:07:00,
2013-02-08 18:08:00,71.6,69.8,29.83,NW,315,2.0,4.0,94,0.04,,,0.33,meteohub,2013-02-08 22:08:00,
2013-02-08 18:11:00,71.6,69.8,29.83,NW,315,3.0,4.0,94,0.04,,,0.33,meteohub,2013-02-08 22:11:00,
2013-02-08 18:12:00,71.6,69.8,29.83,NNW,338,3.0,4.0,94,0.04,,,0.33,meteohub,2013-02-08 22:12:00,
2013-02-08 18:16:00,71.6,69.6,29.83,NW,315,3.0,4.0,94,0.04,,,0.33,meteohub,2013-02-08 22:16:00,
2013-02-08 18:17:00,71.6,69.6,29.83,NW,315,4.0,4.0,94,0.04,,,0.33,meteohub,2013-02-08 22:17:00,
2013-02-08 18:18:00,71.6,69.6,29.83,NW,315,4.0,4.0,94,0.04,,,0.33,meteohub,2013-02-08 22:18:00,
2013-02-08 18:21:00,71.8,69.4,29.83,North,0,4.0,4.0,94,0.04,,,0.33,meteohub,2013-02-08 22:21:00,
2013-02-08 18:22:00,71.8,69.6,29.83,North,0,4.0,4.0,93,0.04,,,0.33,meteohub,2013-02-08 22:22:00,
2013-02-08 18:23:00,71.8,69.6,29.84,NW,315,5.0,5.0,93,0.04,,,0.33,meteohub,2013-02-08 22:23:00,
2013-02-08 18:27:00,71.8,69.4,29.84,NNE,23,4.0,4.0,94,0.04,,,0.33,meteohub,2013-02-08 22:27:00,
2013-02-08 18:29:00,72.0,69.4,29.83,East,90,5.0,5.0,94,0.04,,,0.33,meteohub,2013-02-08 22:29:00,
2013-02-08 18:30:00,72.0,69.4,29.83,East,90,5.0,5.0,94,0.04,,,0.33,meteohub,2013-02-08 22:30:00,
2013-02-08 18:32:00,71.8,69.4,29.83,NE,45,6.0,7.0,94,0.04,,,0.33,meteohub,2013-02-08 22:32:00,
2013-02-08 18:35:00,71.8,70.0,29.83,NW,315,4.0,7.0,94,0.04,,,0.33,meteohub,2013-02-08 22:35:00,
2013-02-08 18:36:00,71.8,70.0,29.83,North,0,5.0,7.0,95,0.02,,,0.33,meteohub,2013-02-08 22:36:00,
2013-02-08 18:37:00,71.8,70.0,29.83,NW,315,7.0,7.0,95,0.02,,,0.33,meteohub,2013-02-08 22:37:00,
2013-02-08 18:40:00,71.8,70.0,29.83,NNW,338,4.0,7.0,95,0.01,,,0.33,meteohub,2013-02-08 22:40:00,
2013-02-08 18:43:00,72.0,69.8,29.83,North,0,3.0,7.0,95,0.01,,,0.33,meteohub,2013-02-08 22:43:00,
2013-02-08 18:45:00,72.0,69.8,29.83,NE,45,4.0,7.0,96,0.01,,,0.33,meteohub,2013-02-08 22:45:00,
2013-02-08 18:46:00,72.0,69.8,29.83,North,0,4.0,7.0,96,0.01,,,0.33,meteohub,2013-02-08 22:46:00,
2013-02-08 18:49:00,72.0,69.8,29.83,NE,45,2.0,7.0,96,0.01,,,0.33,meteohub,2013-02-08 22:49:00,
2013-02-08 18:50:00,72.0,69.8,29.83,NE,45,2.0,7.0,96,0.01,,,0.33,meteohub,2013-02-08 22:50:00,
2013-02-08 18:51:00,72.0,69.8,29.83,NNE,23,2.0,7.0,96,0.01,,,0.33,meteohub,2013-02-08 22:51:00,
2013-02-08 18:52:00,72.0,69.8,29.83,NNW,338,4.0,7.0,96,0.01,,,0.33,meteohub,2013-02-08 22:52:00,
2013-02-08 18:56:00,72.0,69.8,29.83,NW,315,4.0,4.0,96,0.00,,,0.33,meteohub,2013-02-08 22:56:00,
2013-02-08 18:57:00,72.0,69.8,29.83,NW,315,4.0,4.0,96,0.00,,,0.33,meteohub,2013-02-08 22:57:00,
2013-02-08 18:58:00,72.0,69.8,29.83,NW,315,4.0,4.0,96,0.00,,,0.33,meteohub,2013-02-08 22:58:00,
2013-02-08 19:02:00,72.0,69.8,29.84,NW,315,3.0,5.0,95,0.00,,,0.33,meteohub,2013-02-08 23:02:00,
2013-02-08 19:03:00,72.1,69.8,29.84,NW,315,2.0,5.0,95,0.00,,,0.33,meteohub,2013-02-08 23:03:00,
2013-02-08 19:07:00,72.1,69.8,29.83,North,0,4.0,5.0,95,0.00,,,0.33,meteohub,2013-02-08 23:07:00,
2013-02-08 19:08:00,72.1,69.6,29.83,North,0,3.0,5.0,95,0.00,,,0.33,meteohub,2013-02-08 23:08:00,
2013-02-08 19:13:00,72.1,69.6,29.83,North,0,3.0,4.0,94,0.00,,,0.33,meteohub,2013-02-08 23:13:00,
2013-02-08 19:14:00,72.1,69.6,29.83,North,0,2.0,4.0,94,0.00,,,0.33,meteohub,2013-02-08 23:14:00,
2013-02-08 19:16:00,72.1,69.6,29.83,NW,315,3.0,4.0,94,0.00,,,0.33,meteohub,2013-02-08 23:16:00,
2013-02-08 19:17:00,72.1,69.6,29.83,NW,315,4.0,4.0,94,0.00,,,0.33,meteohub,2013-02-08 23:17:00,
2013-02-08 19:19:00,72.1,69.6,29.84,North,0,6.0,6.0,94,0.00,,,0.33,meteohub,2013-02-08 23:19:00,
2013-02-08 19:20:00,72.1,69.6,29.83,North,0,4.0,6.0,94,0.00,,,0.33,meteohub,2013-02-08 23:20:00,
2013-02-08 19:22:00,72.1,69.6,29.84,NW,315,4.0,6.0,94,0.00,,,0.33,meteohub,2013-02-08 23:22:00,
2013-02-08 19:24:00,72.1,69.6,29.84,NW,315,4.0,6.0,94,0.00,,,0.33,meteohub,2013-02-08 23:24:00,
2013-02-08 19:26:00,72.1,69.6,29.84,NW,315,4.0,6.0,94,0.00,,,0.33,meteohub,2013-02-08 23:26:00,
2013-02-08 19:27:00,72.1,69.6,29.84,NNW,338,4.0,6.0,94,0.00,,,0.33,meteohub,2013-02-08 23:27:00,
2013-02-08 19:30:00,72.1,69.6,29.84,NW,315,5.0,6.0,94,0.00,,,0.33,meteohub,2013-02-08 23:30:00,
2013-02-08 19:32:00,72.1,69.4,29.83,North,0,4.0,6.0,94,0.00,,,0.33,meteohub,2013-02-08 23:32:00,
2013-02-08 19:36:00,72.1,69.4,29.84,NW,315,4.0,5.0,95,0.00,,,0.33,meteohub,2013-02-08 23:36:00,
2013-02-08 19:37:00,72.1,69.4,29.84,North,0,4.0,5.0,95,0.00,,,0.33,meteohub,2013-02-08 23:37:00,
2013-02-08 19:38:00,72.1,69.4,29.84,NNW,338,5.0,5.0,95,0.00,,,0.33,meteohub,2013-02-08 23:38:00,
2013-02-08 19:39:00,72.1,69.4,29.84,NW,315,6.0,6.0,95,0.00,,,0.33,meteohub,2013-02-08 23:39:00,
2013-02-08 19:42:00,72.3,69.4,29.84,NW,315,5.0,5.0,95,0.00,,,0.33,meteohub,2013-02-08 23:42:00,
2013-02-08 19:43:00,72.3,69.4,29.84,NW,315,5.0,5.0,95,0.00,,,0.33,meteohub,2013-02-08 23:43:00,
2013-02-08 19:44:00,72.3,69.4,29.84,North,0,4.0,5.0,95,0.00,,,0.33,meteohub,2013-02-08 23:44:00,
2013-02-08 19:47:00,72.3,69.8,29.85,NW,315,5.0,7.0,94,0.00,,,0.33,meteohub,2013-02-08 23:47:00,
2013-02-08 19:48:00,72.5,69.8,29.85,NNW,338,4.0,7.0,94,0.00,,,0.33,meteohub,2013-02-08 23:48:00,
2013-02-08 19:49:00,72.5,70.0,29.84,North,0,7.0,7.0,94,0.00,,,0.33,meteohub,2013-02-08 23:49:00,
2013-02-08 19:53:00,72.5,70.0,29.85,NW,315,6.0,7.0,94,0.00,,,0.33,meteohub,2013-02-08 23:53:00,
2013-02-08 19:54:00,72.5,70.0,29.85,NW,315,6.0,7.0,94,0.00,,,0.33,meteohub,2013-02-08 23:54:00,
2013-02-08 19:55:00,72.5,70.0,29.85,NW,315,7.0,7.0,94,0.00,,,0.33,meteohub,2013-02-08 23:55:00,
2013-02-08 19:58:00,72.7,70.0,29.85,NW,315,4.0,7.0,94,0.00,,,0.33,meteohub,2013-02-08 23:58:00,
2013-02-08 20:00:00,72.7,70.0,29.85,NW,315,8.0,8.0,94,0.00,,,0.33,meteohub,2013-02-09 00:00:00,
2013-02-08 20:01:00,72.7,70.0,29.85,NW,315,5.0,8.0,94,0.00,,,0.33,meteohub,2013-02-09 00:01:00,
2013-02-08 20:02:00,72.7,70.0,29.85,NW,315,5.0,8.0,94,0.00,,,0.33,meteohub,2013-02-09 00:02:00,
2013-02-08 20:04:00,72.7,70.0,29.85,NNW,338,4.0,8.0,94,0.00,,,0.33,meteohub,2013-02-09 00:04:00,
2013-02-08 20:06:00,72.7,70.0,29.86,NW,315,4.0,8.0,94,0.00,,,0.00,meteohub,2013-02-09 00:06:00,
2013-02-08 20:07:00,72.7,70.0,29.86,North,0,3.0,8.0,94,0.00,,,0.00,meteohub,2013-02-09 00:07:00,
2013-02-08 20:09:00,72.7,70.0,29.85,North,0,4.0,8.0,94,0.00,,,0.00,meteohub,2013-02-09 00:09:00,
2013-02-08 20:12:00,72.7,70.0,29.86,North,0,2.0,8.0,94,0.00,,,0.00,meteohub,2013-02-09 00:12:00,
2013-02-08 20:16:00,72.5,70.0,29.86,NNE,23,3.0,8.0,94,0.00,,,0.00,meteohub,2013-02-09 00:16:00,
2013-02-08 20:17:00,72.5,70.0,29.86,North,0,3.0,8.0,94,0.00,,,0.00,meteohub,2013-02-09 00:17:00,
2013-02-08 20:18:00,72.5,70.0,29.86,NE,45,3.0,8.0,94,0.00,,,0.00,meteohub,2013-02-09 00:18:00,
2013-02-08 20:21:00,72.5,70.0,29.86,NE,45,4.0,4.0,94,0.00,,,0.00,meteohub,2013-02-09 00:21:00,
2013-02-08 20:22:00,72.5,70.0,29.86,NE,45,4.0,4.0,94,0.00,,,0.00,meteohub,2013-02-09 00:22:00,
2013-02-08 20:23:00,72.3,70.0,29.86,North,0,4.0,4.0,94,0.00,,,0.00,meteohub,2013-02-09 00:23:00,
2013-02-08 20:24:00,72.3,70.0,29.86,North,0,3.0,4.0,94,0.00,,,0.00,meteohub,2013-02-09 00:24:00,
2013-02-08 20:27:00,72.3,69.8,29.86,NW,315,3.0,4.0,94,0.00,,,0.00,meteohub,2013-02-09 00:27:00,
2013-02-08 20:28:00,72.3,69.8,29.86,NE,45,4.0,4.0,94,0.00,,,0.00,meteohub,2013-02-09 00:28:00,
2013-02-08 20:31:00,72.3,69.8,29.86,North,0,3.0,4.0,95,0.00,,,0.00,meteohub,2013-02-09 00:31:00,
2013-02-08 20:33:00,72.1,69.8,29.86,NE,45,4.0,4.0,95,0.00,,,0.00,meteohub,2013-02-09 00:33:00,
2013-02-08 20:37:00,72.1,69.8,29.86,NE,45,4.0,4.0,95,0.00,,,0.00,meteohub,2013-02-09 00:37:00,
2013-02-08 20:38:00,72.1,69.8,29.86,NE,45,3.0,4.0,95,0.00,,,0.00,meteohub,2013-02-09 00:38:00,
2013-02-08 20:39:00,72.1,69.8,29.86,NE,45,3.0,4.0,95,0.00,,,0.00,meteohub,2013-02-09 00:39:00,
2013-02-08 20:44:00,72.1,69.8,29.86,North,0,3.0,4.0,95,0.00,,,0.00,meteohub,2013-02-09 00:44:00,
2013-02-08 20:45:00,72.1,69.8,29.86,NE,45,3.0,4.0,95,0.00,,,0.00,meteohub,2013-02-09 00:45:00,
2013-02-08 20:49:00,72.1,70.0,29.86,North,0,3.0,4.0,95,0.00,,,0.00,meteohub,2013-02-09 00:49:00,
2013-02-08 20:50:00,72.0,70.0,29.87,NNE,23,3.0,4.0,95,0.00,,,0.00,meteohub,2013-02-09 00:50:00,
2013-02-08 20:51:00,72.0,70.0,29.87,NE,45,2.0,4.0,96,0.00,,,0.00,meteohub,2013-02-09 00:51:00,
2013-02-08 20:54:00,72.0,70.0,29.87,North,0,2.0,4.0,96,0.00,,,0.00,meteohub,2013-02-09 00:54:00,
2013-02-08 20:55:00,72.0,70.0,29.87,North,0,2.0,4.0,96,0.00,,,0.00,meteohub,2013-02-09 00:55:00,
2013-02-08 20:56:00,72.0,70.0,29.87,NE,45,2.0,4.0,96,0.00,,,0.00,meteohub,2013-02-09 00:56:00,
2013-02-08 20:57:00,72.0,70.0,29.87,East,90,2.0,4.0,96,0.00,,,0.00,meteohub,2013-02-09 00:57:00,
2013-02-08 21:02:00,72.0,70.0,29.87,NE,45,2.0,4.0,96,0.00,,,0.00,meteohub,2013-02-09 01:02:00,
2013-02-08 21:03:00,72.0,70.0,29.87,North,0,2.0,4.0,96,0.00,,,0.00,meteohub,2013-02-09 01:03:00,
2013-02-08 21:05:00,72.0,70.0,29.87,North,0,2.0,4.0,96,0.00,,,0.00,meteohub,2013-02-09 01:05:00,
2013-02-08 21:07:00,72.0,70.0,29.87,NE,45,2.0,3.0,96,0.00,,,0.00,meteohub,2013-02-09 01:07:00,
2013-02-08 21:08:00,72.0,70.0,29.87,NE,45,2.0,3.0,96,0.00,,,0.00,meteohub,2013-02-09 01:08:00,
2013-02-08 21:09:00,72.0,70.0,29.87,NE,45,2.0,3.0,96,0.00,,,0.00,meteohub,2013-02-09 01:09:00,
2013-02-08 21:11:00,72.0,70.0,29.87,NE,45,2.0,2.0,96,0.00,,,0.00,meteohub,2013-02-09 01:11:00,
2013-02-08 21:13:00,72.0,70.0,29.87,NE,45,2.0,2.0,96,0.00,,,0.00,meteohub,2013-02-09 01:13:00,
2013-02-08 21:14:00,72.0,70.0,29.87,NE,45,1.0,2.0,96,0.00,,,0.00,meteohub,2013-02-09 01:14:00,
2013-02-08 21:18:00,72.0,70.0,29.87,SE,135,0.0,2.0,96,0.00,,,0.00,meteohub,2013-02-09 01:18:00,
2013-02-08 21:19:00,72.0,70.0,29.87,East,90,0.0,2.0,96,0.00,,,0.00,meteohub,2013-02-09 01:19:00,
2013-02-08 21:22:00,72.0,70.0,29.87,East,90,0.0,2.0,96,0.00,,,0.00,meteohub,2013-02-09 01:22:00,
2013-02-08 21:23:00,72.0,70.0,29.87,East,90,0.0,2.0,96,0.00,,,0.00,meteohub,2013-02-09 01:23:00,
2013-02-08 21:26:00,72.0,70.0,29.87,NE,45,2.0,2.0,96,0.00,,,0.00,meteohub,2013-02-09 01:26:00,
2013-02-08 21:27:00,72.0,70.0,29.87,NE,45,2.0,2.0,96,0.00,,,0.00,meteohub,2013-02-09 01:27:00,
2013-02-08 21:28:00,72.0,69.8,29.87,NE,45,2.0,2.0,96,0.00,,,0.00,meteohub,2013-02-09 01:28:00,
2013-02-08 21:33:00,72.0,70.0,29.87,NE,45,0.0,2.0,96,0.00,,,0.00,meteohub,2013-02-09 01:33:00,
2013-02-08 21:34:00,72.0,69.8,29.87,NE,45,0.0,2.0,96,0.00,,,0.00,meteohub,2013-02-09 01:34:00,
2013-02-08 21:35:00,72.0,70.0,29.87,NE,45,0.0,2.0,96,0.00,,,0.00,meteohub,2013-02-09 01:35:00,
2013-02-08 21:39:00,71.8,69.8,29.87,North,0,0.0,2.0,96,0.00,,,0.00,meteohub,2013-02-09 01:39:00,
2013-02-08 21:40:00,71.8,69.8,29.87,NE,45,0.0,2.0,96,0.00,,,0.00,meteohub,2013-02-09 01:40:00,
2013-02-08 21:42:00,71.8,69.8,29.87,NE,45,0.0,2.0,96,0.00,,,0.00,meteohub,2013-02-09 01:42:00,
2013-02-08 21:46:00,71.8,69.8,29.87,NE,45,2.0,2.0,96,0.00,,,0.00,meteohub,2013-02-09 01:46:00,
2013-02-08 21:48:00,71.8,69.8,29.87,NE,45,2.0,2.0,96,0.00,,,0.00,meteohub,2013-02-09 01:48:00,
2013-02-08 21:49:00,71.8,69.8,29.87,NE,45,2.0,2.0,96,0.00,,,0.00,meteohub,2013-02-09 01:49:00,
2013-02-08 21:51:00,71.6,69.8,29.87,NE,45,2.0,2.0,96,0.00,,,0.00,meteohub,2013-02-09 01:51:00,
2013-02-08 21:52:00,71.6,69.8,29.87,NE,45,2.0,2.0,96,0.00,,,0.00,meteohub,2013-02-09 01:52:00,
2013-02-08 21:54:00,71.6,69.8,29.87,NE,45,1.0,2.0,96,0.00,,,0.00,meteohub,2013-02-09 01:54:00,
2013-02-08 21:57:00,71.6,69.8,29.88,NE,45,2.0,2.0,96,0.00,,,0.00,meteohub,2013-02-09 01:57:00,
2013-02-08 21:59:00,71.4,69.8,29.87,NE,45,0.0,2.0,97,0.00,,,0.00,meteohub,2013-02-09 01:59:00,
2013-02-08 22:01:00,71.4,69.8,29.88,NE,45,0.0,2.0,97,0.00,,,0.00,meteohub,2013-02-09 02:01:00,
2013-02-08 22:03:00,71.4,69.8,29.87,NE,45,0.0,2.0,97,0.00,,,0.00,meteohub,2013-02-09 02:03:00,
2013-02-08 22:07:00,71.2,69.8,29.88,West,270,0.0,2.0,97,0.00,,,0.00,meteohub,2013-02-09 02:07:00,
2013-02-08 22:08:00,71.2,69.8,29.87,West,270,0.0,2.0,97,0.00,,,0.00,meteohub,2013-02-09 02:08:00,
2013-02-08 22:12:00,71.2,69.6,29.87,NW,315,0.0,2.0,97,0.00,,,0.00,meteohub,2013-02-09 02:12:00,
2013-02-08 22:13:00,71.2,69.6,29.88,NW,315,0.0,2.0,97,0.00,,,0.00,meteohub,2013-02-09 02:13:00,
2013-02-08 22:15:00,71.4,69.6,29.88,NW,315,0.0,0.0,97,0.00,,,0.00,meteohub,2013-02-09 02:15:00,
2013-02-08 22:17:00,71.4,69.6,29.88,NW,315,0.0,0.0,97,0.00,,,0.00,meteohub,2013-02-09 02:17:00,
2013-02-08 22:21:00,71.2,69.6,29.88,NW,315,0.0,0.0,97,0.00,,,0.00,meteohub,2013-02-09 02:21:00,
2013-02-08 22:22:00,71.2,69.6,29.88,NW,315,0.0,0.0,97,0.00,,,0.00,meteohub,2013-02-09 02:22:00,
2013-02-08 22:23:00,71.2,69.6,29.88,NW,315,0.0,0.0,97,0.00,,,0.00,meteohub,2013-02-09 02:23:00,
2013-02-08 22:26:00,71.2,69.6,29.88,NW,315,0.0,0.0,97,0.00,,,0.00,meteohub,2013-02-09 02:26:00,
2013-02-08 22:28:00,71.2,69.6,29.87,NW,315,0.0,0.0,97,0.00,,,0.00,meteohub,2013-02-09 02:28:00,
2013-02-08 22:29:00,71.2,69.6,29.88,NW,315,3.0,0.0,97,0.00,,,0.00,meteohub,2013-02-09 02:29:00,
2013-02-08 22:31:00,71.2,69.6,29.88,NW,315,3.0,0.0,97,0.00,,,0.00,meteohub,2013-02-09 02:31:00,
2013-02-08 22:34:00,71.4,69.6,29.88,NW,315,3.0,0.0,97,0.00,,,0.00,meteohub,2013-02-09 02:34:00,
2013-02-08 22:35:00,71.4,69.6,29.88,NW,315,2.0,0.0,97,0.00,,,0.00,meteohub,2013-02-09 02:35:00,
2013-02-08 22:36:00,71.4,69.4,29.88,NW,315,2.0,4.0,97,0.00,,,0.00,meteohub,2013-02-09 02:36:00,
2013-02-08 22:38:00,71.4,69.4,29.88,NNW,338,3.0,4.0,97,0.00,,,0.00,meteohub,2013-02-09 02:38:00,
2013-02-08 22:39:00,71.6,69.4,29.88,NW,315,4.0,4.0,96,0.00,,,0.00,meteohub,2013-02-09 02:39:00,
2013-02-08 22:40:00,71.6,69.4,29.88,NW,315,2.0,4.0,96,0.00,,,0.00,meteohub,2013-02-09 02:40:00,
2013-02-08 22:42:00,71.6,69.4,29.88,NW,315,3.0,4.0,96,0.00,,,0.00,meteohub,2013-02-09 02:42:00,
2013-02-08 22:44:00,71.6,69.4,29.88,NW,315,3.0,4.0,96,0.00,,,0.00,meteohub,2013-02-09 02:44:00,
2013-02-08 22:45:00,71.6,69.4,29.88,NW,315,2.0,4.0,96,0.00,,,0.00,meteohub,2013-02-09 02:45:00,
2013-02-08 22:46:00,71.6,69.4,29.88,NW,315,2.0,4.0,95,0.00,,,0.00,meteohub,2013-02-09 02:46:00,
2013-02-08 22:47:00,71.6,69.4,29.88,NW,315,3.0,4.0,95,0.00,,,0.00,meteohub,2013-02-09 02:47:00,
2013-02-08 22:50:00,71.6,69.4,29.88,NW,315,2.0,4.0,95,0.00,,,0.00,meteohub,2013-02-09 02:50:00,
2013-02-08 22:52:00,71.6,69.4,29.88,NW,315,3.0,4.0,95,0.00,,,0.00,meteohub,2013-02-09 02:52:00,
2013-02-08 22:54:00,71.6,69.4,29.88,NW,315,3.0,4.0,95,0.00,,,0.00,meteohub,2013-02-09 02:54:00,
2013-02-08 22:56:00,71.6,69.4,29.88,NW,315,4.0,4.0,95,0.00,,,0.00,meteohub,2013-02-09 02:56:00,
2013-02-08 22:57:00,71.6,69.4,29.88,NW,315,4.0,4.0,95,0.00,,,0.00,meteohub,2013-02-09 02:57:00,
2013-02-08 22:59:00,71.6,69.4,29.88,NW,315,3.0,4.0,95,0.00,,,0.00,meteohub,2013-02-09 02:59:00,
2013-02-08 23:01:00,71.6,69.3,29.88,NW,315,4.0,4.0,95,0.00,,,0.00,meteohub,2013-02-09 03:01:00,
2013-02-08 23:02:00,71.6,69.4,29.88,NW,315,3.0,4.0,95,0.00,,,0.00,meteohub,2013-02-09 03:02:00,
2013-02-08 23:04:00,71.6,69.4,29.87,NW,315,3.0,4.0,95,0.00,,,0.00,meteohub,2013-02-09 03:04:00,
2013-02-08 23:05:00,71.6,69.3,29.88,NW,315,3.0,4.0,95,0.00,,,0.00,meteohub,2013-02-09 03:05:00,
2013-02-08 23:08:00,71.6,69.3,29.88,NW,315,3.0,4.0,94,0.00,,,0.00,meteohub,2013-02-09 03:08:00,
2013-02-08 23:09:00,71.6,69.3,29.88,North,0,3.0,4.0,94,0.00,,,0.00,meteohub,2013-02-09 03:09:00,
2013-02-08 23:10:00,71.6,69.3,29.87,NW,315,3.0,4.0,94,0.00,,,0.00,meteohub,2013-02-09 03:10:00,
2013-02-08 23:11:00,71.6,69.3,29.88,NNW,338,3.0,4.0,94,0.00,,,0.00,meteohub,2013-02-09 03:11:00,
2013-02-08 23:13:00,71.4,69.3,29.88,NNE,23,4.0,4.0,95,0.00,,,0.00,meteohub,2013-02-09 03:13:00,
2013-02-08 23:16:00,71.4,69.3,29.88,NW,315,4.0,4.0,95,0.00,,,0.00,meteohub,2013-02-09 03:16:00,
2013-02-08 23:17:00,71.4,69.3,29.88,NW,315,4.0,4.0,95,0.00,,,0.00,meteohub,2013-02-09 03:17:00,
2013-02-08 23:18:00,71.2,69.3,29.88,NW,315,3.0,4.0,95,0.00,,,0.00,meteohub,2013-02-09 03:18:00,
2013-02-08 23:19:00,71.2,69.3,29.87,NW,315,3.0,4.0,95,0.00,,,0.00,meteohub,2013-02-09 03:19:00,
2013-02-08 23:24:00,71.1,69.3,29.88,NW,315,3.0,4.0,95,0.00,,,0.00,meteohub,2013-02-09 03:24:00,
2013-02-08 23:25:00,71.1,69.3,29.88,NW,315,2.0,4.0,95,0.00,,,0.00,meteohub,2013-02-09 03:25:00,
2013-02-08 23:26:00,71.1,69.3,29.88,NW,315,2.0,4.0,95,0.00,,,0.00,meteohub,2013-02-09 03:26:00,
2013-02-08 23:29:00,71.1,69.3,29.87,NW,315,3.0,4.0,95,0.00,,,0.00,meteohub,2013-02-09 03:29:00,
2013-02-08 23:31:00,70.9,69.3,29.88,NW,315,3.0,4.0,95,0.00,,,0.00,meteohub,2013-02-09 03:31:00,
2013-02-08 23:32:00,70.9,69.3,29.87,NW,315,3.0,4.0,95,0.00,,,0.00,meteohub,2013-02-09 03:32:00,
2013-02-08 23:34:00,70.9,69.3,29.87,NW,315,2.0,4.0,95,0.00,,,0.00,meteohub,2013-02-09 03:34:00,
2013-02-08 23:35:00,70.9,69.1,29.88,NW,315,3.0,4.0,95,0.00,,,0.00,meteohub,2013-02-09 03:35:00,
2013-02-08 23:38:00,70.9,69.1,29.87,NW,315,3.0,3.0,95,0.00,,,0.00,meteohub,2013-02-09 03:38:00,
2013-02-08 23:39:00,70.9,69.1,29.87,NW,315,3.0,3.0,95,0.00,,,0.00,meteohub,2013-02-09 03:39:00,
2013-02-08 23:40:00,70.9,69.1,29.87,NW,315,3.0,3.0,96,0.00,,,0.00,meteohub,2013-02-09 03:40:00,
2013-02-08 23:43:00,70.9,69.1,29.87,WNW,293,3.0,3.0,96,0.00,,,0.00,meteohub,2013-02-09 03:43:00,
2013-02-08 23:44:00,70.9,69.3,29.87,NW,315,4.0,4.0,96,0.00,,,0.00,meteohub,2013-02-09 03:44:00,
2013-02-08 23:47:00,70.9,69.3,29.87,NW,315,4.0,4.0,96,0.00,,,0.00,meteohub,2013-02-09 03:47:00,
2013-02-08 23:50:00,70.9,69.3,29.87,NW,315,3.0,3.0,96,0.00,,,0.00,meteohub,2013-02-09 03:50:00,
2013-02-08 23:51:00,70.9,69.4,29.87,NW,315,2.0,5.0,96,0.00,,,0.00,meteohub,2013-02-09 03:51:00,
2013-02-08 23:52:00,70.9,69.3,29.87,North,0,2.0,5.0,96,0.00,,,0.00,meteohub,2013-02-09 03:52:00,
2013-02-08 23:55:00,70.9,69.4,29.87,NW,315,2.0,5.0,96,0.00,,,0.00,meteohub,2013-02-09 03:55:00,
2013-02-08 23:56:00,70.7,69.3,29.87,NW,315,3.0,5.0,96,0.00,,,0.00,meteohub,2013-02-09 03:56:00,
2013-02-08 23:57:00,70.7,69.4,29.87,NNW,338,3.0,5.0,96,0.00,,,0.00,meteohub,2013-02-09 03:57:00,